| time (UTC) | temp F | wind direction | speed MPH | gust MPH | rain 1hr in | rain 24hr in | rain mn in | humidity % | barometer mb |
| 20260902005715 | 58 | 225 | 2.0 | 5.0 | 0.00 | 0.02 | 0.00 | 95 | 1020.4 |
| 20260902005535 | 58 | 248 | 2.0 | 5.0 | 0.00 | 0.02 | 0.00 | 95 | 1020.4 |
| 20260902005358 | 58 | 292 | 2.0 | 2.0 | 0.00 | 0.02 | 0.00 | 95 | 1020.4 |
| 20260902005220 | 58 | 292 | 2.0 | 2.0 | 0.00 | 0.02 | 0.00 | 95 | 1020.4 |
| 20260902005025 | 58 | 292 | 2.0 | 3.0 | 0.00 | 0.02 | 0.00 | 95 | 1020.4 |
| 20260902004842 | 58 | 292 | 2.0 | 5.0 | 0.00 | 0.02 | 0.00 | 95 | 1020.3 |
| 20260902004825 | 58 | 292 | 2.0 | 5.0 | 0.00 | 0.02 | 0.00 | 95 | 1020.4 |
| 20260902004645 | 58 | 292 | 2.0 | 5.0 | 0.00 | 0.02 | 0.00 | 95 | 1020.5 |
| 20260902004455 | 58 | 292 | 2.0 | 5.0 | 0.00 | 0.02 | 0.00 | 95 | 1020.4 |
| 20260902004255 | 58 | 270 | 1.0 | 5.0 | 0.00 | 0.02 | 0.00 | 95 | 1020.4 |
| 20260902004100 | 58 | 292 | 1.0 | 4.0 | 0.00 | 0.02 | 0.00 | 95 | 1020.4 |
| 20260902003915 | 58 | 270 | 1.0 | 4.0 | 0.00 | 0.02 | 0.00 | 95 | 1020.3 |
| 20260902003737 | 58 | 270 | 1.0 | 3.0 | 0.00 | 0.02 | 0.00 | 95 | 1020.4 |
| 20260902003603 | 58 | 270 | 1.0 | 3.0 | 0.00 | 0.02 | 0.00 | 95 | 1020.4 |
| 20260902003420 | 58 | 270 | 0.0 | 3.0 | 0.00 | 0.02 | 0.00 | 95 | 1020.4 |
| 20260902003225 | 58 | 270 | 0.0 | 3.0 | 0.00 | 0.02 | 0.00 | 95 | 1020.3 |
| 20260902003045 | 58 | 270 | 0.0 | 2.0 | 0.00 | 0.02 | 0.00 | 95 | 1020.3 |
| 20260902003026 | 58 | 270 | 0.0 | 2.0 | 0.00 | 0.02 | 0.00 | 95 | 1020.3 |
| 20260902002850 | 58 | 270 | 0.0 | 2.0 | 0.00 | 0.02 | 0.00 | 95 | 1020.3 |
| 20260902002715 | 58 | 270 | 0.0 | 2.0 | 0.00 | 0.02 | 0.00 | 95 | 1020.3 |
| 20260902002525 | 58 | 270 | 0.0 | 2.0 | 0.00 | 0.02 | 0.00 | 95 | 1020.2 |
| 20260902002335 | 58 | 270 | 0.0 | 2.0 | 0.00 | 0.02 | 0.00 | 95 | 1020.2 |
| 20260902002150 | 58 | 270 | 0.0 | 2.0 | 0.00 | 0.02 | 0.00 | 95 | 1020.2 |
| 20260902002015 | 58 | 270 | 0.0 | 2.0 | 0.00 | 0.02 | 0.00 | 95 | 1020.2 |
| 20260902001820 | 58 | 270 | 0.0 | 3.0 | 0.00 | 0.02 | 0.00 | 95 | 1020.2 |
| 20260902001620 | 58 | 270 | 0.0 | 3.0 | 0.00 | 0.02 | 0.00 | 95 | 1020.3 |
| 20260902001457 | 58 | 270 | 1.0 | 3.0 | 0.00 | 0.02 | 0.00 | 95 | 1020.3 |
| 20260902001425 | 58 | 270 | 1.0 | 3.0 | 0.00 | 0.02 | 0.00 | 95 | 1020.3 |
| 20260902001240 | 58 | 270 | 1.0 | 3.0 | 0.00 | 0.02 | 0.00 | 95 | 1020.2 |
| 20260902001045 | 58 | 270 | 1.0 | 3.0 | 0.00 | 0.02 | 0.00 | 95 | 1020.1 |
| 20260902000907 | 58 | 270 | 1.0 | 3.0 | 0.00 | 0.02 | 0.00 | 95 | 1020.2 |
| 20260902000715 | 58 | 270 | 1.0 | 3.0 | 0.00 | 0.02 | 0.00 | 95 | 1020.2 |
| 20260902000525 | 58 | 270 | 0.0 | 3.0 | 0.00 | 0.02 | 0.00 | 95 | 1020.1 |
| 20260902000330 | 58 | 270 | 0.0 | 2.0 | 0.00 | 0.02 | 0.00 | 95 | 1020.2 |
| 20260902000135 | 58 | 270 | 0.0 | 2.0 | 0.00 | 0.02 | 0.00 | 95 | 1020.2 |
| 20260901235935 | 58 | 270 | 0.0 | 2.0 | 0.00 | 0.02 | 0.00 | 95 | 1020.2 |
| 20260901235735 | 58 | 270 | 0.0 | 2.0 | 0.00 | 0.02 | 0.00 | 95 | 1020.2 |
| 20260901235627 | 58 | 270 | 0.0 | 4.0 | 0.00 | 0.02 | 0.00 | 95 | 1020.1 |
| 20260901235545 | 58 | 270 | 0.0 | 4.0 | 0.00 | 0.02 | 0.00 | 95 | 1020.2 |
| 20260901235405 | 58 | 270 | 0.0 | 4.0 | 0.00 | 0.02 | 0.00 | 95 | 1020.1 |
| 20260901235205 | 58 | 292 | 0.0 | 4.0 | 0.00 | 0.02 | 0.00 | 95 | 1020.1 |
| 20260901235020 | 58 | 292 | 0.0 | 4.0 | 0.00 | 0.02 | 0.00 | 94 | 1020.1 |
| 20260901234835 | 58 | 292 | 0.0 | 4.0 | 0.00 | 0.02 | 0.00 | 95 | 1020.1 |
| 20260901234635 | 59 | 292 | 0.0 | 2.0 | 0.00 | 0.02 | 0.00 | 94 | 1020.2 |
| 20260901234455 | 59 | 292 | 0.0 | 2.0 | 0.00 | 0.02 | 0.00 | 94 | 1020.1 |
| 20260901234305 | 59 | 292 | 0.0 | 2.0 | 0.00 | 0.02 | 0.00 | 94 | 1020.1 |
| 20260901234125 | 59 | 292 | 0.0 | 2.0 | 0.00 | 0.02 | 0.00 | 94 | 1020.1 |
| 20260901233925 | 59 | 292 | 0.0 | 2.0 | 0.00 | 0.02 | 0.00 | 94 | 1020.1 |
| 20260901233827 | 59 | 292 | 0.0 | 2.0 | 0.00 | 0.02 | 0.00 | 94 | 1020.1 |
| 20260901233735 | 59 | 292 | 0.0 | 2.0 | 0.00 | 0.02 | 0.00 | 94 | 1020.1 |
| 20260901233551 | 59 | 292 | 0.0 | 2.0 | 0.00 | 0.02 | 0.00 | 94 | 1020.1 |
| 20260901233400 | 59 | 292 | 0.0 | 2.0 | 0.00 | 0.02 | 0.00 | 94 | 1020.1 |
| 20260901233215 | 59 | 292 | 0.0 | 2.0 | 0.00 | 0.02 | 0.00 | 94 | 1020.1 |
| 20260901233030 | 59 | 292 | 0.0 | 2.0 | 0.00 | 0.02 | 0.00 | 94 | 1020.1 |
| 20260901232835 | 59 | 292 | 0.0 | 4.0 | 0.00 | 0.02 | 0.00 | 94 | 1020.1 |
| 20260901232655 | 59 | 292 | 0.0 | 4.0 | 0.00 | 0.02 | 0.00 | 94 | 1020.1 |
| 20260901232515 | 59 | 292 | 0.0 | 4.0 | 0.00 | 0.02 | 0.00 | 94 | 1020.1 |
| 20260901232315 | 59 | 270 | 0.0 | 2.0 | 0.00 | 0.02 | 0.00 | 94 | 1020.1 |
| 20260901232130 | 59 | 270 | 0.0 | 2.0 | 0.00 | 0.02 | 0.00 | 94 | 1020.1 |
| 20260901231950 | 59 | 270 | 0.0 | 2.0 | 0.00 | 0.02 | 0.00 | 94 | 1020.0 |
| 20260901231757 | 59 | 270 | 0.0 | 2.0 | 0.00 | 0.02 | 0.00 | 94 | 1020.1 |
| 20260901231620 | 59 | 270 | 1.0 | 2.0 | 0.00 | 0.02 | 0.00 | 93 | 1020.1 |
| 20260901231437 | 59 | 270 | 1.0 | 2.0 | 0.00 | 0.02 | 0.00 | 93 | 1020.1 |
| 20260901231255 | 59 | 270 | 1.0 | 2.0 | 0.00 | 0.02 | 0.00 | 93 | 1020.0 |
| 20260901231115 | 59 | 270 | 1.0 | 2.0 | 0.00 | 0.02 | 0.00 | 93 | 1020.1 |
| 20260901230930 | 59 | 270 | 0.0 | 2.0 | 0.00 | 0.02 | 0.00 | 93 | 1020.1 |
| 20260901230730 | 60 | 270 | 0.0 | 2.0 | 0.00 | 0.02 | 0.00 | 93 | 1020.1 |
| 20260901230540 | 60 | 270 | 0.0 | 2.0 | 0.00 | 0.02 | 0.00 | 93 | 1020.0 |
| 20260901230400 | 60 | 270 | 0.0 | 2.0 | 0.00 | 0.02 | 0.00 | 93 | 1020.1 |
| 20260901230158 | 60 | 0 | 0.0 | 2.0 | 0.00 | 0.02 | 0.00 | 93 | 1020.0 |
| 20260901230114 | 60 | 0 | 0.0 | 0.0 | 0.00 | 0.02 | 0.00 | 93 | 1020.1 |
| 20260901230015 | 60 | 0 | 0.0 | 0.0 | 0.00 | 0.02 | 0.00 | 93 | 1020.1 |
| 20260901225835 | 60 | 0 | 0.0 | 0.0 | 0.00 | 0.02 | 0.00 | 93 | 1020.0 |
| 20260901225635 | 60 | 0 | 0.0 | 0.0 | 0.00 | 0.02 | 0.00 | 93 | 1020.1 |
| 20260901225435 | 60 | 0 | 0.0 | 0.0 | 0.00 | 0.02 | 0.00 | 93 | 1020.1 |
| 20260901225242 | 60 | 270 | 0.0 | 2.0 | 0.00 | 0.02 | 0.00 | 92 | 1020.1 |
| 20260901225108 | 60 | 270 | 0.0 | 2.0 | 0.00 | 0.02 | 0.00 | 92 | 1020.1 |
| 20260901224910 | 60 | 270 | 0.0 | 2.0 | 0.00 | 0.02 | 0.00 | 92 | 1020.1 |
| 20260901224715 | 60 | 270 | 0.0 | 2.0 | 0.00 | 0.02 | 0.00 | 92 | 1020.1 |
| 20260901224535 | 60 | 270 | 1.0 | 2.0 | 0.00 | 0.02 | 0.00 | 92 | 1020.1 |
| 20260901224340 | 60 | 270 | 1.0 | 2.0 | 0.00 | 0.02 | 0.00 | 92 | 1020.1 |
| 20260901224258 | 60 | 270 | 1.0 | 3.0 | 0.00 | 0.02 | 0.00 | 92 | 1020.1 |
| 20260901224147 | 60 | 270 | 2.0 | 3.0 | 0.00 | 0.02 | 0.00 | 92 | 1020.1 |
| 20260901224009 | 60 | 270 | 2.0 | 3.0 | 0.00 | 0.02 | 0.00 | 92 | 1020.1 |
| 20260901223810 | 60 | 270 | 2.0 | 3.0 | 0.00 | 0.02 | 0.00 | 92 | 1020.1 |
| 20260901223623 | 60 | 270 | 1.0 | 3.0 | 0.00 | 0.02 | 0.00 | 91 | 1020.0 |
| 20260901223440 | 60 | 270 | 1.0 | 3.0 | 0.00 | 0.02 | 0.00 | 91 | 1020.1 |
| 20260901223255 | 60 | 270 | 1.0 | 2.0 | 0.00 | 0.02 | 0.00 | 91 | 1020.1 |
| 20260901223105 | 61 | 270 | 1.0 | 3.0 | 0.00 | 0.02 | 0.00 | 91 | 1020.1 |
| 20260901222920 | 61 | 270 | 1.0 | 3.0 | 0.00 | 0.02 | 0.00 | 91 | 1020.1 |
| 20260901222730 | 61 | 270 | 1.0 | 3.0 | 0.00 | 0.02 | 0.00 | 91 | 1020.0 |
| 20260901222556 | 61 | 270 | 1.0 | 4.0 | 0.00 | 0.02 | 0.00 | 91 | 1020.1 |
| 20260901222530 | 61 | 292 | 1.0 | 4.0 | 0.00 | 0.02 | 0.00 | 91 | 1020.1 |
| 20260901222340 | 61 | 292 | 1.0 | 4.0 | 0.00 | 0.02 | 0.00 | 91 | 1020.1 |
| 20260901222159 | 61 | 292 | 1.0 | 4.0 | 0.00 | 0.02 | 0.00 | 90 | 1020.0 |
| 20260901222005 | 61 | 292 | 2.0 | 4.0 | 0.00 | 0.02 | 0.00 | 90 | 1020.0 |
| 20260901221810 | 61 | 292 | 2.0 | 4.0 | 0.00 | 0.02 | 0.00 | 90 | 1020.1 |
| 20260901221615 | 61 | 292 | 2.0 | 4.0 | 0.00 | 0.02 | 0.00 | 90 | 1020.0 |
| 20260901221419 | 61 | 292 | 2.0 | 4.0 | 0.00 | 0.02 | 0.00 | 90 | 1020.0 |
| 20260901221228 | 61 | 292 | 2.0 | 4.0 | 0.00 | 0.02 | 0.00 | 90 | 1020.0 |
| 20260901221045 | 62 | 292 | 2.0 | 4.0 | 0.00 | 0.02 | 0.00 | 89 | 1020.0 |
| 20260901220855 | 62 | 292 | 2.0 | 4.0 | 0.00 | 0.02 | 0.00 | 89 | 1019.9 |
| 20260901220654 | 62 | 292 | 3.0 | 4.0 | 0.00 | 0.02 | 0.00 | 89 | 1020.0 |
| 20260901220500 | 62 | 292 | 2.0 | 4.0 | 0.00 | 0.02 | 0.00 | 89 | 1020.0 |
| 20260901220310 | 62 | 248 | 2.0 | 4.0 | 0.00 | 0.02 | 0.00 | 89 | 1019.9 |
| 20260901220125 | 62 | 248 | 3.0 | 5.0 | 0.00 | 0.02 | 0.00 | 89 | 1019.9 |
| 20260901215941 | 62 | 292 | 3.0 | 5.0 | 0.00 | 0.02 | 0.02 | 88 | 1019.8 |
| 20260901215800 | 62 | 292 | 3.0 | 5.0 | 0.00 | 0.02 | 0.02 | 88 | 1019.9 |
| 20260901215620 | 62 | 248 | 3.0 | 6.0 | 0.00 | 0.02 | 0.02 | 88 | 1019.8 |
| 20260901215440 | 62 | 248 | 3.0 | 6.0 | 0.00 | 0.02 | 0.02 | 88 | 1019.8 |
| 20260901215222 | 62 | 248 | 3.0 | 6.0 | 0.00 | 0.02 | 0.02 | 88 | 1019.8 |
| 20260901215104 | 62 | 225 | 3.0 | 5.0 | 0.00 | 0.02 | 0.02 | 88 | 1019.8 |
| 20260901214920 | 62 | 248 | 3.0 | 5.0 | 0.00 | 0.02 | 0.02 | 88 | 1019.8 |
| 20260901214725 | 62 | 248 | 3.0 | 5.0 | 0.00 | 0.02 | 0.02 | 88 | 1019.8 |
| 20260901214540 | 62 | 225 | 3.0 | 5.0 | 0.00 | 0.02 | 0.02 | 87 | 1019.8 |
| 20260901214400 | 62 | 270 | 3.0 | 5.0 | 0.00 | 0.02 | 0.02 | 87 | 1019.8 |
| 20260901214200 | 62 | 202 | 3.0 | 5.0 | 0.00 | 0.02 | 0.02 | 87 | 1019.8 |
| 20260901214000 | 62 | 248 | 3.0 | 5.0 | 0.00 | 0.02 | 0.02 | 87 | 1019.8 |
| 20260901213805 | 62 | 248 | 3.0 | 5.0 | 0.00 | 0.02 | 0.02 | 87 | 1019.8 |
| 20260901213613 | 62 | 292 | 3.0 | 5.0 | 0.00 | 0.02 | 0.02 | 87 | 1019.8 |
| 20260901213417 | 62 | 248 | 3.0 | 5.0 | 0.00 | 0.02 | 0.02 | 87 | 1019.7 |
| 20260901213238 | 63 | 248 | 3.0 | 5.0 | 0.00 | 0.02 | 0.02 | 87 | 1019.7 |
| 20260901213039 | 63 | 225 | 3.0 | 5.0 | 0.00 | 0.02 | 0.02 | 86 | 1019.8 |
| 20260901212850 | 63 | 292 | 3.0 | 5.0 | 0.00 | 0.02 | 0.02 | 86 | 1019.7 |
| 20260901212655 | 63 | 292 | 3.0 | 5.0 | 0.00 | 0.02 | 0.02 | 86 | 1019.7 |
| 20260901212520 | 63 | 270 | 3.0 | 5.0 | 0.00 | 0.02 | 0.02 | 86 | 1019.7 |
| 20260901212335 | 63 | 270 | 3.0 | 5.0 | 0.00 | 0.02 | 0.02 | 86 | 1019.8 |
| 20260901212138 | 63 | 270 | 3.0 | 5.0 | 0.00 | 0.02 | 0.02 | 86 | 1019.7 |
| 20260901211950 | 63 | 270 | 3.0 | 5.0 | 0.00 | 0.02 | 0.02 | 86 | 1019.8 |
| 20260901211750 | 63 | 292 | 2.0 | 5.0 | 0.00 | 0.02 | 0.02 | 85 | 1019.7 |
| 20260901211607 | 63 | 292 | 2.0 | 5.0 | 0.00 | 0.02 | 0.02 | 85 | 1019.7 |
| 20260901211556 | 63 | 292 | 2.0 | 5.0 | 0.00 | 0.02 | 0.02 | 85 | 1019.7 |
| 20260901211405 | 63 | 248 | 2.0 | 5.0 | 0.00 | 0.02 | 0.02 | 85 | 1019.8 |
| 20260901211220 | 63 | 225 | 2.0 | 5.0 | 0.00 | 0.02 | 0.02 | 85 | 1019.7 |
| 20260901211040 | 63 | 270 | 2.0 | 5.0 | 0.00 | 0.02 | 0.02 | 85 | 1019.7 |
| 20260901210854 | 63 | 270 | 3.0 | 5.0 | 0.00 | 0.02 | 0.02 | 84 | 1019.7 |
| 20260901210720 | 63 | 270 | 3.0 | 5.0 | 0.00 | 0.02 | 0.02 | 84 | 1019.6 |
| 20260901210525 | 63 | 270 | 3.0 | 5.0 | 0.00 | 0.02 | 0.02 | 84 | 1019.7 |
| 20260901210335 | 63 | 292 | 3.0 | 5.0 | 0.00 | 0.02 | 0.02 | 84 | 1019.6 |
| 20260901210135 | 64 | 225 | 3.0 | 6.0 | 0.00 | 0.02 | 0.02 | 84 | 1019.6 |
| 20260901210043 | 64 | 270 | 3.0 | 6.0 | 0.00 | 0.02 | 0.02 | 84 | 1019.7 |
| 20260901205940 | 64 | 248 | 3.0 | 6.0 | 0.00 | 0.02 | 0.02 | 84 | 1019.6 |
| 20260901205800 | 64 | 225 | 3.0 | 6.0 | 0.00 | 0.02 | 0.02 | 83 | 1019.7 |
| 20260901205615 | 64 | 225 | 4.0 | 6.0 | 0.00 | 0.02 | 0.02 | 83 | 1019.6 |
| 20260901205425 | 64 | 248 | 4.0 | 6.0 | 0.00 | 0.02 | 0.02 | 83 | 1019.6 |
| 20260901205250 | 64 | 248 | 4.0 | 6.0 | 0.00 | 0.02 | 0.02 | 83 | 1019.6 |
| 20260901205104 | 64 | 248 | 4.0 | 6.0 | 0.00 | 0.02 | 0.02 | 82 | 1019.6 |
| 20260901204908 | 64 | 225 | 4.0 | 6.0 | 0.00 | 0.02 | 0.02 | 82 | 1019.6 |
| 20260901204730 | 64 | 292 | 4.0 | 6.0 | 0.00 | 0.02 | 0.02 | 82 | 1019.6 |
| 20260901204540 | 64 | 292 | 4.0 | 6.0 | 0.00 | 0.02 | 0.02 | 82 | 1019.5 |
| 20260901204523 | 64 | 270 | 4.0 | 6.0 | 0.00 | 0.02 | 0.02 | 82 | 1019.5 |
| 20260901204340 | 64 | 270 | 4.0 | 6.0 | 0.00 | 0.02 | 0.02 | 82 | 1019.6 |
| 20260901204156 | 64 | 248 | 4.0 | 6.0 | 0.00 | 0.02 | 0.02 | 81 | 1019.6 |
| 20260901204000 | 64 | 270 | 4.0 | 6.0 | 0.00 | 0.02 | 0.02 | 81 | 1019.5 |
| 20260901203800 | 64 | 225 | 4.0 | 7.0 | 0.00 | 0.02 | 0.02 | 81 | 1019.6 |
| 20260901203610 | 64 | 225 | 4.0 | 7.0 | 0.00 | 0.02 | 0.02 | 80 | 1019.5 |
| 20260901203420 | 64 | 248 | 4.0 | 7.0 | 0.00 | 0.02 | 0.02 | 80 | 1019.5 |
| 20260901203230 | 64 | 270 | 4.0 | 6.0 | 0.00 | 0.02 | 0.02 | 80 | 1019.4 |
| 20260901203055 | 64 | 225 | 4.0 | 6.0 | 0.00 | 0.02 | 0.02 | 80 | 1019.5 |
| 20260901202908 | 64 | 248 | 3.0 | 5.0 | 0.00 | 0.03 | 0.02 | 80 | 1019.5 |
| 20260901202853 | 64 | 248 | 3.0 | 5.0 | 0.00 | 0.03 | 0.02 | 80 | 1019.5 |
| 20260901202720 | 64 | 248 | 3.0 | 5.0 | 0.00 | 0.03 | 0.02 | 79 | 1019.5 |
| 20260901202525 | 64 | 225 | 4.0 | 5.0 | 0.00 | 0.03 | 0.02 | 79 | 1019.5 |
| 20260901202345 | 65 | 270 | 4.0 | 5.0 | 0.00 | 0.03 | 0.02 | 79 | 1019.5 |
| 20260901202205 | 65 | 270 | 4.0 | 5.0 | 0.00 | 0.03 | 0.02 | 79 | 1019.5 |
| 20260901202025 | 65 | 225 | 4.0 | 6.0 | 0.00 | 0.03 | 0.02 | 79 | 1019.5 |
| 20260901201845 | 65 | 225 | 5.0 | 7.0 | 0.00 | 0.03 | 0.02 | 78 | 1019.6 |
| 20260901201702 | 65 | 225 | 4.0 | 7.0 | 0.00 | 0.03 | 0.02 | 78 | 1019.5 |
| 20260901201505 | 65 | 248 | 4.0 | 7.0 | 0.00 | 0.03 | 0.02 | 78 | 1019.5 |
| 20260901201310 | 65 | 225 | 4.0 | 8.0 | 0.00 | 0.03 | 0.02 | 78 | 1019.4 |
| 20260901201152 | 65 | 248 | 4.0 | 8.0 | 0.00 | 0.03 | 0.02 | 78 | 1019.5 |
| 20260901201130 | 65 | 292 | 4.0 | 8.0 | 0.00 | 0.03 | 0.02 | 78 | 1019.5 |
| 20260901200930 | 65 | 270 | 4.0 | 8.0 | 0.00 | 0.03 | 0.02 | 77 | 1019.5 |
| 20260901200750 | 65 | 248 | 4.0 | 8.0 | 0.00 | 0.03 | 0.02 | 77 | 1019.5 |
| 20260901200600 | 65 | 292 | 4.0 | 8.0 | 0.00 | 0.03 | 0.02 | 77 | 1019.5 |
| 20260901200405 | 65 | 225 | 4.0 | 8.0 | 0.00 | 0.03 | 0.02 | 76 | 1019.5 |
| 20260901200205 | 65 | 292 | 4.0 | 7.0 | 0.00 | 0.03 | 0.02 | 76 | 1019.4 |
| 20260901200005 | 65 | 270 | 4.0 | 6.0 | 0.00 | 0.03 | 0.02 | 76 | 1019.4 |
| 20260901195820 | 66 | 248 | 4.0 | 8.0 | 0.00 | 0.03 | 0.02 | 76 | 1019.4 |
| 20260901195635 | 66 | 270 | 5.0 | 8.0 | 0.00 | 0.03 | 0.02 | 75 | 1019.4 |
| 20260901195507 | 66 | 248 | 5.0 | 9.0 | 0.00 | 0.03 | 0.02 | 75 | 1019.4 |
| 20260901195440 | 66 | 270 | 5.0 | 9.0 | 0.00 | 0.03 | 0.02 | 75 | 1019.4 |
| 20260901195245 | 66 | 248 | 5.0 | 9.0 | 0.00 | 0.03 | 0.02 | 74 | 1019.4 |
| 20260901195055 | 66 | 225 | 6.0 | 9.0 | 0.00 | 0.03 | 0.02 | 74 | 1019.4 |
| 20260901194915 | 66 | 292 | 6.0 | 10.0 | 0.00 | 0.03 | 0.02 | 74 | 1019.4 |
| 20260901194740 | 66 | 292 | 6.0 | 10.0 | 0.00 | 0.03 | 0.02 | 73 | 1019.3 |
| 20260901194600 | 66 | 270 | 6.0 | 10.0 | 0.00 | 0.03 | 0.02 | 73 | 1019.3 |
| 20260901194405 | 66 | 248 | 5.0 | 8.0 | 0.00 | 0.03 | 0.02 | 73 | 1019.4 |
| 20260901194225 | 66 | 248 | 5.0 | 7.0 | 0.00 | 0.03 | 0.02 | 73 | 1019.4 |
| 20260901194035 | 66 | 225 | 5.0 | 7.0 | 0.00 | 0.03 | 0.02 | 73 | 1019.3 |
| 20260901193855 | 66 | 202 | 5.0 | 7.0 | 0.00 | 0.03 | 0.02 | 73 | 1019.3 |
| 20260901193821 | 67 | 248 | 5.0 | 8.0 | 0.00 | 0.03 | 0.02 | 72 | 1019.3 |
| 20260901193720 | 67 | 248 | 5.0 | 8.0 | 0.00 | 0.03 | 0.02 | 72 | 1019.2 |
| 20260901193542 | 67 | 225 | 5.0 | 8.0 | 0.00 | 0.03 | 0.02 | 72 | 1019.2 |
| 20260901193345 | 67 | 248 | 5.0 | 8.0 | 0.00 | 0.03 | 0.02 | 72 | 1019.2 |
| 20260901193150 | 67 | 292 | 5.0 | 8.0 | 0.00 | 0.03 | 0.02 | 72 | 1019.2 |
| 20260901193010 | 67 | 202 | 5.0 | 9.0 | 0.00 | 0.03 | 0.02 | 71 | 1019.2 |
| 20260901192815 | 67 | 248 | 5.0 | 9.0 | 0.00 | 0.03 | 0.02 | 71 | 1019.2 |
| 20260901192635 | 67 | 270 | 5.0 | 9.0 | 0.00 | 0.03 | 0.02 | 71 | 1019.2 |
| 20260901192445 | 67 | 270 | 5.0 | 8.0 | 0.00 | 0.03 | 0.02 | 71 | 1019.1 |
| 20260901192300 | 67 | 248 | 5.0 | 8.0 | 0.00 | 0.03 | 0.02 | 71 | 1019.2 |
| 20260901192228 | 67 | 248 | 6.0 | 8.0 | 0.00 | 0.03 | 0.02 | 70 | 1019.2 |
| 20260901192110 | 67 | 202 | 6.0 | 8.0 | 0.00 | 0.03 | 0.02 | 70 | 1019.1 |
| 20260901191930 | 67 | 248 | 6.0 | 8.0 | 0.00 | 0.03 | 0.02 | 70 | 1019.1 |
| 20260901191745 | 67 | 248 | 6.0 | 8.0 | 0.00 | 0.03 | 0.02 | 69 | 1019.1 |
| 20260901191544 | 67 | 248 | 6.0 | 7.0 | 0.00 | 0.03 | 0.02 | 70 | 1019.1 |
| 20260901191355 | 67 | 225 | 6.0 | 7.0 | 0.00 | 0.03 | 0.02 | 69 | 1019.2 |
| 20260901191205 | 68 | 248 | 6.0 | 7.0 | 0.00 | 0.03 | 0.02 | 69 | 1019.1 |
| 20260901191015 | 68 | 248 | 6.0 | 9.0 | 0.00 | 0.03 | 0.02 | 69 | 1019.1 |
| 20260901190815 | 68 | 202 | 5.0 | 9.0 | 0.00 | 0.05 | 0.02 | 69 | 1019.1 |
| 20260901190620 | 68 | 225 | 5.0 | 8.0 | 0.00 | 0.05 | 0.02 | 69 | 1019.0 |
| 20260901190548 | 68 | 270 | 5.0 | 8.0 | 0.00 | 0.05 | 0.02 | 69 | 1019.1 |
| 20260901190440 | 68 | 225 | 5.0 | 8.0 | 0.00 | 0.05 | 0.02 | 68 | 1019.0 |
| 20260901190245 | 68 | 270 | 5.0 | 8.0 | 0.00 | 0.11 | 0.02 | 68 | 1019.0 |
| 20260901190100 | 68 | 248 | 6.0 | 10.0 | 0.00 | 0.11 | 0.02 | 68 | 1019.1 |
| 20260901185910 | 68 | 248 | 5.0 | 10.0 | 0.00 | 0.11 | 0.02 | 68 | 1019.0 |
| 20260901185725 | 68 | 202 | 6.0 | 10.0 | 0.00 | 0.13 | 0.02 | 68 | 1019.0 |
| 20260901185525 | 68 | 248 | 6.0 | 9.0 | 0.00 | 0.13 | 0.02 | 68 | 1019.0 |
| 20260901185333 | 68 | 225 | 7.0 | 9.0 | 0.00 | 0.13 | 0.02 | 67 | 1019.0 |
| 20260901185153 | 69 | 270 | 7.0 | 11.0 | 0.00 | 0.13 | 0.02 | 66 | 1019.0 |
| 20260901185005 | 69 | 270 | 7.0 | 11.0 | 0.00 | 0.13 | 0.02 | 66 | 1019.0 |
| 20260901184919 | 69 | 270 | 7.0 | 11.0 | 0.00 | 0.13 | 0.02 | 66 | 1019.0 |
| 20260901184610 | 69 | 292 | 6.0 | 11.0 | 0.00 | 0.13 | 0.02 | 66 | 1019.1 |
| 20260901184422 | 69 | 202 | 6.0 | 11.0 | 0.00 | 0.13 | 0.02 | 64 | 1018.9 |
| 20260901184230 | 69 | 248 | 6.0 | 9.0 | 0.00 | 0.13 | 0.02 | 64 | 1019.0 |
| 20260901184048 | 69 | 292 | 6.0 | 9.0 | 0.00 | 0.13 | 0.02 | 64 | 1018.9 |
| 20260901183850 | 69 | 248 | 6.0 | 9.0 | 0.00 | 0.13 | 0.02 | 63 | 1018.9 |
| 20260901183659 | 69 | 248 | 6.0 | 11.0 | 0.00 | 0.13 | 0.02 | 63 | 1019.0 |
| 20260901183508 | 69 | 292 | 6.0 | 11.0 | 0.00 | 0.13 | 0.02 | 63 | 1018.9 |
| 20260901183329 | 69 | 248 | 6.0 | 11.0 | 0.00 | 0.13 | 0.02 | 62 | 1018.9 |
| 20260901183257 | 69 | 248 | 6.0 | 11.0 | 0.00 | 0.13 | 0.02 | 63 | 1019.0 |
| 20260901183150 | 69 | 225 | 6.0 | 7.0 | 0.00 | 0.13 | 0.02 | 63 | 1018.9 |
| 20260901183010 | 69 | 292 | 6.0 | 10.0 | 0.00 | 0.13 | 0.02 | 63 | 1018.8 |
| 20260901182820 | 69 | 248 | 6.0 | 10.0 | 0.00 | 0.13 | 0.02 | 63 | 1018.9 |
| 20260901182633 | 70 | 202 | 7.0 | 10.0 | 0.00 | 0.13 | 0.02 | 62 | 1018.8 |
| 20260901182433 | 70 | 292 | 6.0 | 11.0 | 0.00 | 0.13 | 0.02 | 62 | 1018.8 |
| 20260901182255 | 70 | 248 | 6.0 | 11.0 | 0.00 | 0.13 | 0.02 | 61 | 1018.9 |
| 20260901182118 | 70 | 225 | 6.0 | 11.0 | 0.00 | 0.13 | 0.02 | 61 | 1018.7 |
| 20260901181943 | 70 | 292 | 5.0 | 8.0 | 0.00 | 0.13 | 0.02 | 61 | 1018.7 |
| 20260901181750 | 70 | 202 | 5.0 | 8.0 | 0.00 | 0.13 | 0.02 | 61 | 1018.6 |
| 20260901181557 | 70 | 315 | 5.0 | 8.0 | 0.00 | 0.13 | 0.02 | 61 | 1018.6 |
| 20260901181522 | 70 | 202 | 5.0 | 7.0 | 0.00 | 0.13 | 0.02 | 61 | 1018.6 |
| 20260901181400 | 70 | 270 | 5.0 | 7.0 | 0.00 | 0.13 | 0.02 | 61 | 1018.5 |
| 20260901181210 | 70 | 225 | 5.0 | 6.0 | 0.00 | 0.13 | 0.02 | 61 | 1018.6 |
| 20260901181030 | 70 | 248 | 6.0 | 8.0 | 0.00 | 0.13 | 0.02 | 61 | 1018.5 |
| 20260901180831 | 70 | 248 | 5.0 | 8.0 | 0.00 | 0.13 | 0.02 | 60 | 1018.4 |
| 20260901180652 | 70 | 225 | 5.0 | 8.0 | 0.00 | 0.13 | 0.02 | 61 | 1018.4 |
| 20260901180515 | 70 | 248 | 5.0 | 12.0 | 0.00 | 0.13 | 0.02 | 60 | 1018.4 |
| 20260901180325 | 70 | 270 | 5.0 | 12.0 | 0.00 | 0.13 | 0.02 | 60 | 1018.4 |
| 20260901180125 | 70 | 270 | 6.0 | 12.0 | 0.00 | 0.13 | 0.02 | 60 | 1018.4 |
| 20260901175945 | 70 | 248 | 5.0 | 10.0 | 0.00 | 0.13 | 0.02 | 60 | 1018.3 |
| 20260901175842 | 70 | 270 | 5.0 | 10.0 | 0.00 | 0.13 | 0.02 | 60 | 1018.3 |
| 20260901175750 | 71 | 270 | 5.0 | 10.0 | 0.00 | 0.13 | 0.02 | 60 | 1018.3 |
| 20260901175605 | 71 | 270 | 5.0 | 8.0 | 0.00 | 0.13 | 0.02 | 60 | 1018.2 |
| 20260901175413 | 71 | 292 | 5.0 | 8.0 | 0.00 | 0.13 | 0.02 | 60 | 1018.2 |
| 20260901175233 | 71 | 225 | 5.0 | 7.0 | 0.00 | 0.13 | 0.02 | 60 | 1018.1 |
| 20260901175053 | 71 | 248 | 5.0 | 7.0 | 0.00 | 0.13 | 0.02 | 60 | 1018.2 |
| 20260901174901 | 71 | 315 | 5.0 | 8.0 | 0.00 | 0.13 | 0.02 | 60 | 1018.2 |
| 20260901174715 | 71 | 225 | 5.0 | 8.0 | 0.00 | 0.13 | 0.02 | 60 | 1018.2 |
| 20260901174538 | 71 | 292 | 5.0 | 8.0 | 0.00 | 0.13 | 0.02 | 60 | 1018.2 |
| 20260901174350 | 71 | 315 | 5.0 | 8.0 | 0.00 | 0.13 | 0.02 | 60 | 1018.2 |
| 20260901174200 | 71 | 202 | 5.0 | 10.0 | 0.00 | 0.13 | 0.02 | 60 | 1018.2 |
| 20260901174147 | 71 | 225 | 5.0 | 10.0 | 0.00 | 0.13 | 0.02 | 60 | 1018.2 |
| 20260901174007 | 71 | 292 | 5.0 | 10.0 | 0.00 | 0.13 | 0.02 | 60 | 1018.2 |
| 20260901173815 | 71 | 292 | 5.0 | 10.0 | 0.00 | 0.13 | 0.02 | 60 | 1018.2 |
| 20260901173630 | 71 | 270 | 5.0 | 9.0 | 0.00 | 0.13 | 0.02 | 60 | 1018.2 |
| 20260901173450 | 71 | 248 | 5.0 | 9.0 | 0.00 | 0.13 | 0.02 | 59 | 1018.2 |
| 20260901173304 | 71 | 225 | 4.0 | 9.0 | 0.00 | 0.13 | 0.02 | 59 | 1018.1 |
| 20260901173105 | 71 | 248 | 4.0 | 11.0 | 0.00 | 0.13 | 0.02 | 60 | 1018.2 |
| 20260901172905 | 71 | 248 | 4.0 | 11.0 | 0.00 | 0.13 | 0.02 | 59 | 1018.1 |
| 20260901172715 | 71 | 292 | 4.0 | 11.0 | 0.00 | 0.13 | 0.02 | 59 | 1018.0 |
| 20260901172520 | 71 | 270 | 3.0 | 6.0 | 0.00 | 0.13 | 0.02 | 60 | 1018.0 |
| 20260901172340 | 71 | 248 | 3.0 | 6.0 | 0.00 | 0.13 | 0.02 | 59 | 1018.0 |
| 20260901172155 | 71 | 248 | 3.0 | 6.0 | 0.00 | 0.13 | 0.02 | 59 | 1018.0 |
| 20260901172015 | 71 | 248 | 4.0 | 5.0 | 0.00 | 0.13 | 0.02 | 59 | 1018.0 |
| 20260901171829 | 71 | 270 | 4.0 | 5.0 | 0.00 | 0.13 | 0.02 | 59 | 1018.0 |
| 20260901171645 | 71 | 292 | 4.0 | 8.0 | 0.00 | 0.13 | 0.02 | 59 | 1017.9 |
| 20260901171450 | 71 | 292 | 4.0 | 8.0 | 0.00 | 0.13 | 0.02 | 59 | 1018.0 |
| 20260901171305 | 71 | 292 | 4.0 | 8.0 | 0.00 | 0.13 | 0.02 | 59 | 1018.0 |
| 20260901171110 | 71 | 202 | 4.0 | 5.0 | 0.00 | 0.13 | 0.02 | 59 | 1018.0 |
| 20260901170915 | 71 | 248 | 4.0 | 6.0 | 0.00 | 0.13 | 0.02 | 59 | 1017.9 |
| 20260901170725 | 71 | 248 | 4.0 | 6.0 | 0.00 | 0.13 | 0.02 | 59 | 1018.0 |
| 20260901170530 | 72 | 270 | 4.0 | 6.0 | 0.00 | 0.13 | 0.02 | 58 | 1018.0 |
| 20260901170349 | 72 | 248 | 4.0 | 6.0 | 0.00 | 0.13 | 0.02 | 58 | 1017.9 |
| 20260901170205 | 72 | 248 | 4.0 | 6.0 | 0.00 | 0.13 | 0.02 | 58 | 1017.9 |
| 20260901170010 | 72 | 270 | 4.0 | 7.0 | 0.00 | 0.13 | 0.02 | 58 | 1017.9 |
| 20260901165825 | 72 | 270 | 4.0 | 7.0 | 0.00 | 0.13 | 0.02 | 58 | 1017.8 |
| 20260901165640 | 72 | 292 | 4.0 | 7.0 | 0.00 | 0.13 | 0.02 | 58 | 1018.0 |
| 20260901165450 | 72 | 248 | 5.0 | 7.0 | 0.00 | 0.13 | 0.02 | 57 | 1017.9 |
| 20260901165306 | 72 | 292 | 5.0 | 7.0 | 0.00 | 0.13 | 0.02 | 57 | 1017.9 |
| 20260901165157 | 72 | 292 | 5.0 | 8.0 | 0.00 | 0.13 | 0.02 | 57 | 1017.9 |
| 20260901165106 | 72 | 270 | 5.0 | 8.0 | 0.00 | 0.13 | 0.02 | 57 | 1017.9 |
| 20260901164920 | 72 | 292 | 5.0 | 8.0 | 0.00 | 0.13 | 0.02 | 56 | 1017.9 |
| 20260901164730 | 73 | 248 | 5.0 | 8.0 | 0.00 | 0.13 | 0.02 | 56 | 1017.8 |
| 20260901164535 | 73 | 248 | 6.0 | 8.0 | 0.00 | 0.13 | 0.02 | 55 | 1017.9 |
| 20260901164355 | 73 | 248 | 6.0 | 8.0 | 0.00 | 0.13 | 0.02 | 56 | 1017.8 |
| 20260901164200 | 73 | 202 | 6.0 | 8.0 | 0.00 | 0.13 | 0.02 | 55 | 1017.8 |
| 20260901164000 | 73 | 225 | 6.0 | 10.0 | 0.00 | 0.13 | 0.02 | 55 | 1017.9 |
| 20260901163814 | 73 | 248 | 6.0 | 10.0 | 0.00 | 0.13 | 0.02 | 55 | 1017.9 |
| 20260901163614 | 73 | 270 | 7.0 | 11.0 | 0.00 | 0.13 | 0.02 | 55 | 1017.9 |
| 20260901163427 | 73 | 270 | 6.0 | 11.0 | 0.00 | 0.13 | 0.02 | 54 | 1018.0 |
| 20260901163235 | 73 | 270 | 6.0 | 11.0 | 0.00 | 0.13 | 0.02 | 54 | 1018.0 |
| 20260901163053 | 73 | 292 | 6.0 | 11.0 | 0.00 | 0.13 | 0.02 | 55 | 1017.9 |
| 20260901162858 | 73 | 315 | 6.0 | 11.0 | 0.00 | 0.13 | 0.02 | 54 | 1017.8 |
| 20260901162715 | 73 | 270 | 6.0 | 11.0 | 0.00 | 0.13 | 0.02 | 54 | 1017.9 |
| 20260901162530 | 73 | 225 | 6.0 | 8.0 | 0.00 | 0.13 | 0.02 | 54 | 1017.9 |
| 20260901162340 | 73 | 270 | 6.0 | 9.0 | 0.00 | 0.13 | 0.02 | 54 | 1018.0 |
| 20260901162155 | 73 | 292 | 6.0 | 9.0 | 0.00 | 0.13 | 0.02 | 54 | 1018.0 |
| 20260901162000 | 73 | 248 | 6.0 | 10.0 | 0.00 | 0.13 | 0.02 | 53 | 1017.9 |
| 20260901161815 | 73 | 225 | 6.0 | 10.0 | 0.00 | 0.13 | 0.02 | 54 | 1017.8 |
| 20260901161753 | 73 | 225 | 6.0 | 10.0 | 0.00 | 0.13 | 0.02 | 54 | 1017.9 |
| 20260901161625 | 73 | 270 | 6.0 | 10.0 | 0.00 | 0.13 | 0.02 | 53 | 1017.8 |
| 20260901161430 | 73 | 315 | 6.0 | 10.0 | 0.00 | 0.13 | 0.02 | 53 | 1017.7 |
| 20260901161240 | 73 | 225 | 6.0 | 10.0 | 0.00 | 0.13 | 0.02 | 54 | 1017.8 |
| 20260901161040 | 74 | 248 | 6.0 | 10.0 | 0.00 | 0.13 | 0.02 | 53 | 1017.9 |
| 20260901160845 | 74 | 248 | 6.0 | 10.0 | 0.00 | 0.13 | 0.02 | 54 | 1017.8 |
| 20260901160701 | 74 | 270 | 6.0 | 11.0 | 0.00 | 0.13 | 0.02 | 53 | 1017.8 |
| 20260901160510 | 74 | 225 | 6.0 | 11.0 | 0.00 | 0.13 | 0.02 | 53 | 1017.8 |
| 20260901160310 | 75 | 270 | 6.0 | 10.0 | 0.00 | 0.13 | 0.02 | 52 | 1017.8 |
| 20260901160137 | 75 | 270 | 6.0 | 12.0 | 0.00 | 0.13 | 0.02 | 52 | 1017.7 |
| 20260901160110 | 75 | 292 | 6.0 | 12.0 | 0.00 | 0.13 | 0.02 | 52 | 1017.8 |
| 20260901155930 | 75 | 248 | 6.0 | 12.0 | 0.00 | 0.13 | 0.02 | 52 | 1017.7 |
| 20260901155735 | 75 | 248 | 7.0 | 12.0 | 0.00 | 0.13 | 0.02 | 51 | 1017.7 |
| 20260901155540 | 75 | 270 | 7.0 | 10.0 | 0.00 | 0.13 | 0.02 | 51 | 1017.7 |
| 20260901155350 | 75 | 248 | 7.0 | 10.0 | 0.00 | 0.13 | 0.02 | 50 | 1017.7 |
| 20260901155200 | 75 | 292 | 8.0 | 11.0 | 0.00 | 0.13 | 0.02 | 50 | 1017.7 |
| 20260901155022 | 75 | 248 | 8.0 | 11.0 | 0.00 | 0.13 | 0.02 | 50 | 1017.8 |
| 20260901154830 | 75 | 270 | 8.0 | 11.0 | 0.00 | 0.13 | 0.02 | 49 | 1017.8 |
| 20260901154650 | 75 | 248 | 8.0 | 11.0 | 0.00 | 0.13 | 0.02 | 50 | 1017.7 |
| 20260901154500 | 75 | 270 | 8.0 | 13.0 | 0.00 | 0.13 | 0.02 | 50 | 1017.7 |
| 20260901154450 | 75 | 248 | 8.0 | 13.0 | 0.00 | 0.13 | 0.02 | 50 | 1017.7 |
| 20260901154310 | 75 | 248 | 8.0 | 13.0 | 0.00 | 0.13 | 0.02 | 50 | 1017.8 |
| 20260901154120 | 76 | 270 | 8.0 | 13.0 | 0.00 | 0.13 | 0.02 | 50 | 1017.7 |
| 20260901153940 | 76 | 248 | 8.0 | 12.0 | 0.00 | 0.13 | 0.02 | 49 | 1017.7 |
| 20260901153800 | 76 | 292 | 8.0 | 12.0 | 0.00 | 0.13 | 0.02 | 49 | 1017.7 |
| 20260901153625 | 76 | 270 | 8.0 | 13.0 | 0.00 | 0.13 | 0.02 | 49 | 1017.7 |
| 20260901153442 | 76 | 248 | 7.0 | 13.0 | 0.00 | 0.13 | 0.02 | 50 | 1017.6 |
| 20260901153250 | 76 | 292 | 7.0 | 13.0 | 0.00 | 0.13 | 0.02 | 50 | 1017.7 |
| 20260901153116 | 76 | 292 | 6.0 | 9.0 | 0.00 | 0.13 | 0.02 | 49 | 1017.6 |
| 20260901152919 | 76 | 270 | 6.0 | 10.0 | 0.00 | 0.13 | 0.02 | 51 | 1017.5 |
| 20260901152712 | 76 | 248 | 6.0 | 10.0 | 0.00 | 0.13 | 0.02 | 50 | 1017.6 |
| 20260901152617 | 75 | 248 | 6.0 | 11.0 | 0.00 | 0.13 | 0.02 | 51 | 1017.6 |
| 20260901152523 | 75 | 202 | 6.0 | 11.0 | 0.00 | 0.13 | 0.02 | 51 | 1017.6 |
| 20260901152340 | 75 | 292 | 6.0 | 11.0 | 0.00 | 0.13 | 0.02 | 51 | 1017.7 |
| 20260901152153 | 75 | 292 | 8.0 | 11.0 | 0.00 | 0.13 | 0.02 | 51 | 1017.6 |
| 20260901152015 | 75 | 292 | 8.0 | 11.0 | 0.00 | 0.13 | 0.02 | 52 | 1017.6 |
| 20260901151824 | 75 | 248 | 7.0 | 11.0 | 0.00 | 0.13 | 0.02 | 52 | 1017.7 |
| 20260901151630 | 75 | 270 | 7.0 | 13.0 | 0.00 | 0.13 | 0.02 | 52 | 1017.7 |
| 20260901151450 | 75 | 180 | 6.0 | 15.0 | 0.00 | 0.13 | 0.02 | 52 | 1017.6 |
| 20260901151255 | 76 | 248 | 7.0 | 15.0 | 0.00 | 0.13 | 0.02 | 52 | 1017.6 |
| 20260901151105 | 76 | 270 | 6.0 | 13.0 | 0.00 | 0.13 | 0.02 | 52 | 1017.7 |
| 20260901151001 | 76 | 270 | 6.0 | 9.0 | 0.00 | 0.13 | 0.02 | 51 | 1017.6 |
| 20260901150905 | 75 | 248 | 6.0 | 9.0 | 0.00 | 0.13 | 0.02 | 51 | 1017.7 |
| 20260901150715 | 75 | 292 | 6.0 | 10.0 | 0.00 | 0.13 | 0.02 | 51 | 1017.7 |
| 20260901150530 | 75 | 225 | 7.0 | 10.0 | 0.00 | 0.13 | 0.02 | 51 | 1017.6 |
| 20260901150345 | 75 | 270 | 7.0 | 10.0 | 0.00 | 0.13 | 0.02 | 51 | 1017.6 |
| 20260901150145 | 75 | 315 | 7.0 | 10.0 | 0.00 | 0.13 | 0.02 | 52 | 1017.6 |
| 20260901145945 | 75 | 202 | 7.0 | 11.0 | 0.00 | 0.13 | 0.02 | 52 | 1017.6 |
| 20260901145758 | 75 | 248 | 6.0 | 11.0 | 0.00 | 0.13 | 0.02 | 52 | 1017.6 |
| 20260901145610 | 75 | 270 | 7.0 | 11.0 | 0.00 | 0.13 | 0.02 | 53 | 1017.7 |
| 20260901145430 | 75 | 225 | 7.0 | 14.0 | 0.00 | 0.13 | 0.02 | 53 | 1017.7 |
| 20260901145255 | 75 | 248 | 7.0 | 14.0 | 0.00 | 0.13 | 0.02 | 53 | 1017.7 |
| 20260901145157 | 75 | 270 | 7.0 | 14.0 | 0.00 | 0.13 | 0.02 | 54 | 1017.6 |
| 20260901145057 | 75 | 225 | 7.0 | 14.0 | 0.00 | 0.13 | 0.02 | 53 | 1017.6 |
| 20260901144910 | 75 | 202 | 6.0 | 11.0 | 0.00 | 0.13 | 0.02 | 53 | 1017.5 |
| 20260901144725 | 74 | 270 | 6.0 | 10.0 | 0.00 | 0.13 | 0.02 | 54 | 1017.5 |
| 20260901144545 | 74 | 225 | 5.0 | 13.0 | 0.00 | 0.13 | 0.02 | 54 | 1017.6 |
| 20260901144352 | 74 | 248 | 4.0 | 10.0 | 0.00 | 0.13 | 0.02 | 53 | 1017.5 |
| 20260901144200 | 74 | 292 | 4.0 | 9.0 | 0.00 | 0.13 | 0.02 | 52 | 1017.5 |
| 20260901144005 | 73 | 22 | 4.0 | 6.0 | 0.00 | 0.13 | 0.02 | 54 | 1017.5 |
| 20260901143820 | 73 | 292 | 5.0 | 7.0 | 0.00 | 0.13 | 0.02 | 56 | 1017.6 |
| 20260901143640 | 73 | 292 | 5.0 | 8.0 | 0.00 | 0.13 | 0.02 | 57 | 1017.6 |
| 20260901143455 | 73 | 270 | 5.0 | 8.0 | 0.00 | 0.13 | 0.02 | 57 | 1017.6 |
| 20260901143425 | 73 | 292 | 5.0 | 8.0 | 0.00 | 0.13 | 0.02 | 57 | 1017.6 |
| 20260901143318 | 73 | 248 | 6.0 | 8.0 | 0.00 | 0.13 | 0.02 | 58 | 1017.6 |
| 20260901143134 | 73 | 225 | 6.0 | 8.0 | 0.00 | 0.13 | 0.02 | 57 | 1017.5 |
| 20260901142955 | 73 | 248 | 5.0 | 10.0 | 0.00 | 0.13 | 0.02 | 57 | 1017.6 |
| 20260901142800 | 73 | 225 | 5.0 | 10.0 | 0.00 | 0.13 | 0.02 | 57 | 1017.6 |
| 20260901142605 | 73 | 292 | 4.0 | 7.0 | 0.00 | 0.13 | 0.02 | 58 | 1017.6 |
| 20260901142425 | 73 | 225 | 3.0 | 5.0 | 0.00 | 0.13 | 0.02 | 58 | 1017.6 |
| 20260901142225 | 73 | 292 | 3.0 | 5.0 | 0.00 | 0.13 | 0.02 | 57 | 1017.6 |
| 20260901142031 | 73 | 225 | 4.0 | 5.0 | 0.00 | 0.13 | 0.02 | 57 | 1017.6 |
| 20260901141912 | 73 | 248 | 4.0 | 5.0 | 0.00 | 0.13 | 0.02 | 57 | 1017.6 |
| 20260901141835 | 73 | 158 | 4.0 | 5.0 | 0.00 | 0.13 | 0.02 | 57 | 1017.6 |
| 20260901141645 | 73 | 225 | 4.0 | 5.0 | 0.00 | 0.13 | 0.02 | 58 | 1017.7 |
| 20260901141450 | 73 | 225 | 5.0 | 5.0 | 0.00 | 0.13 | 0.02 | 58 | 1017.7 |
| 20260901141250 | 73 | 248 | 5.0 | 7.0 | 0.00 | 0.13 | 0.02 | 58 | 1017.8 |
| 20260901141100 | 73 | 292 | 6.0 | 10.0 | 0.00 | 0.13 | 0.02 | 58 | 1017.8 |
| 20260901140920 | 73 | 225 | 6.0 | 10.0 | 0.00 | 0.13 | 0.02 | 58 | 1017.7 |
| 20260901140730 | 74 | 248 | 6.0 | 10.0 | 0.00 | 0.13 | 0.02 | 58 | 1017.8 |
| 20260901140553 | 74 | 248 | 6.0 | 10.0 | 0.00 | 0.13 | 0.02 | 58 | 1017.8 |
| 20260901140410 | 74 | 248 | 6.0 | 10.0 | 0.00 | 0.13 | 0.02 | 57 | 1017.8 |
| 20260901140230 | 74 | 202 | 6.0 | 9.0 | 0.00 | 0.13 | 0.02 | 57 | 1017.8 |
| 20260901140031 | 74 | 225 | 6.0 | 9.0 | 0.00 | 0.13 | 0.02 | 56 | 1017.7 |
| 20260901135842 | 74 | 225 | 6.0 | 9.0 | 0.00 | 0.13 | 0.02 | 55 | 1017.8 |
| 20260901135700 | 74 | 225 | 6.0 | 9.0 | 0.00 | 0.13 | 0.02 | 54 | 1017.9 |
| 20260901135510 | 73 | 225 | 6.0 | 9.0 | 0.00 | 0.13 | 0.02 | 54 | 1017.8 |
| 20260901135330 | 73 | 248 | 6.0 | 9.0 | 0.00 | 0.13 | 0.02 | 54 | 1017.8 |
| 20260901135132 | 73 | 248 | 6.0 | 9.0 | 0.00 | 0.13 | 0.02 | 55 | 1017.8 |
| 20260901134940 | 73 | 248 | 6.0 | 8.0 | 0.00 | 0.13 | 0.02 | 56 | 1017.8 |
| 20260901134745 | 73 | 225 | 6.0 | 8.0 | 0.00 | 0.13 | 0.02 | 57 | 1017.9 |
| 20260901134600 | 73 | 202 | 7.0 | 11.0 | 0.00 | 0.13 | 0.02 | 56 | 1017.9 |
| 20260901134415 | 73 | 270 | 7.0 | 11.0 | 0.00 | 0.13 | 0.02 | 55 | 1017.8 |
| 20260901134320 | 73 | 248 | 6.0 | 11.0 | 0.00 | 0.13 | 0.02 | 55 | 1017.8 |
| 20260901134222 | 73 | 248 | 6.0 | 11.0 | 0.00 | 0.13 | 0.02 | 55 | 1017.8 |
| 20260901134040 | 74 | 202 | 6.0 | 10.0 | 0.00 | 0.13 | 0.02 | 56 | 1017.8 |
| 20260901133900 | 74 | 270 | 7.0 | 10.0 | 0.00 | 0.13 | 0.02 | 55 | 1017.8 |
| 20260901133715 | 74 | 202 | 7.0 | 9.0 | 0.00 | 0.13 | 0.02 | 56 | 1017.8 |
| 20260901133521 | 74 | 292 | 6.0 | 9.0 | 0.00 | 0.13 | 0.02 | 55 | 1017.8 |
| 20260901133340 | 74 | 248 | 7.0 | 13.0 | 0.00 | 0.13 | 0.02 | 54 | 1017.8 |
| 20260901133152 | 74 | 248 | 7.0 | 13.0 | 0.00 | 0.13 | 0.02 | 54 | 1017.8 |
| 20260901133010 | 74 | 292 | 7.0 | 13.0 | 0.00 | 0.13 | 0.02 | 54 | 1017.9 |
| 20260901132832 | 74 | 225 | 7.0 | 11.0 | 0.00 | 0.13 | 0.02 | 53 | 1017.8 |
| 20260901132645 | 74 | 292 | 7.0 | 9.0 | 0.00 | 0.13 | 0.02 | 53 | 1017.9 |
| 20260901132608 | 74 | 270 | 7.0 | 11.0 | 0.00 | 0.13 | 0.02 | 53 | 1017.8 |
| 20260901132452 | 75 | 270 | 7.0 | 11.0 | 0.00 | 0.13 | 0.02 | 54 | 1017.8 |
| 20260901132308 | 75 | 248 | 7.0 | 11.0 | 0.00 | 0.13 | 0.02 | 53 | 1017.9 |
| 20260901132130 | 75 | 292 | 7.0 | 11.0 | 0.00 | 0.13 | 0.02 | 52 | 1017.9 |
| 20260901131935 | 75 | 248 | 7.0 | 11.0 | 0.00 | 0.13 | 0.02 | 52 | 1017.8 |
| 20260901131740 | 74 | 248 | 7.0 | 11.0 | 0.00 | 0.13 | 0.02 | 53 | 1017.8 |
| 20260901131555 | 74 | 158 | 7.0 | 12.0 | 0.00 | 0.13 | 0.02 | 53 | 1017.9 |
| 20260901131405 | 74 | 225 | 7.0 | 12.0 | 0.00 | 0.13 | 0.02 | 53 | 1017.8 |
| 20260901131220 | 74 | 225 | 7.0 | 12.0 | 0.00 | 0.13 | 0.02 | 53 | 1018.0 |
| 20260901131040 | 74 | 270 | 7.0 | 11.0 | 0.00 | 0.13 | 0.02 | 53 | 1017.9 |
| 20260901130900 | 74 | 292 | 7.0 | 11.0 | 0.00 | 0.13 | 0.02 | 54 | 1017.9 |
| 20260901130802 | 74 | 202 | 7.0 | 11.0 | 0.00 | 0.13 | 0.02 | 53 | 1017.9 |
| 20260901130704 | 74 | 292 | 7.0 | 12.0 | 0.00 | 0.13 | 0.02 | 53 | 1017.9 |
| 20260901130515 | 74 | 292 | 8.0 | 12.0 | 0.00 | 0.13 | 0.02 | 54 | 1017.9 |
| 20260901130320 | 74 | 248 | 8.0 | 12.0 | 0.00 | 0.13 | 0.02 | 53 | 1018.0 |
| 20260901130133 | 73 | 248 | 7.0 | 12.0 | 0.00 | 0.13 | 0.02 | 54 | 1018.0 |
| 20260901125935 | 73 | 315 | 7.0 | 12.0 | 0.00 | 0.13 | 0.02 | 55 | 1018.0 |
| 20260901125754 | 73 | 248 | 7.0 | 12.0 | 0.00 | 0.13 | 0.02 | 55 | 1017.9 |
| 20260901125617 | 73 | 225 | 6.0 | 14.0 | 0.00 | 0.13 | 0.02 | 55 | 1018.0 |
| 20260901125432 | 72 | 225 | 6.0 | 14.0 | 0.00 | 0.13 | 0.02 | 57 | 1018.0 |
| 20260901125245 | 72 | 202 | 6.0 | 10.0 | 0.00 | 0.13 | 0.02 | 57 | 1017.9 |
| 20260901125059 | 72 | 248 | 6.0 | 10.0 | 0.00 | 0.13 | 0.02 | 58 | 1017.9 |
| 20260901124937 | 72 | 270 | 6.0 | 13.0 | 0.00 | 0.13 | 0.02 | 58 | 1017.9 |
| 20260901124905 | 72 | 248 | 6.0 | 13.0 | 0.00 | 0.13 | 0.02 | 58 | 1017.8 |
| 20260901124713 | 72 | 248 | 6.0 | 13.0 | 0.00 | 0.13 | 0.02 | 59 | 1017.9 |
| 20260901124530 | 72 | 225 | 6.0 | 13.0 | 0.00 | 0.13 | 0.02 | 58 | 1017.9 |
| 20260901124340 | 72 | 248 | 6.0 | 11.0 | 0.00 | 0.13 | 0.02 | 59 | 1018.0 |
| 20260901124140 | 72 | 248 | 6.0 | 11.0 | 0.00 | 0.13 | 0.02 | 59 | 1018.0 |
| 20260901123945 | 72 | 292 | 6.0 | 10.0 | 0.00 | 0.13 | 0.02 | 60 | 1018.0 |
| 20260901123745 | 72 | 292 | 5.0 | 10.0 | 0.00 | 0.13 | 0.02 | 58 | 1018.0 |
| 20260901123605 | 72 | 270 | 5.0 | 9.0 | 0.00 | 0.13 | 0.02 | 59 | 1017.9 |
| 20260901123410 | 72 | 270 | 5.0 | 9.0 | 0.00 | 0.13 | 0.02 | 60 | 1018.0 |
| 20260901123230 | 72 | 225 | 5.0 | 9.0 | 0.00 | 0.13 | 0.02 | 59 | 1018.0 |
| 20260901123148 | 72 | 225 | 5.0 | 6.0 | 0.00 | 0.13 | 0.02 | 60 | 1018.1 |
| 20260901123032 | 72 | 225 | 5.0 | 8.0 | 0.00 | 0.13 | 0.02 | 58 | 1018.1 |
| 20260901122845 | 72 | 292 | 6.0 | 8.0 | 0.00 | 0.13 | 0.02 | 60 | 1018.0 |
| 20260901122710 | 72 | 248 | 6.0 | 10.0 | 0.00 | 0.13 | 0.02 | 60 | 1018.1 |
| 20260901122520 | 72 | 248 | 6.0 | 10.0 | 0.00 | 0.13 | 0.02 | 61 | 1018.1 |
| 20260901122330 | 73 | 270 | 6.0 | 10.0 | 0.00 | 0.13 | 0.02 | 60 | 1018.0 |
| 20260901122145 | 73 | 270 | 6.0 | 10.0 | 0.00 | 0.13 | 0.02 | 60 | 1018.1 |
| 20260901121954 | 73 | 248 | 7.0 | 10.0 | 0.00 | 0.13 | 0.02 | 59 | 1018.1 |
| 20260901121800 | 73 | 270 | 7.0 | 10.0 | 0.00 | 0.13 | 0.02 | 59 | 1018.1 |
| 20260901121617 | 72 | 315 | 6.0 | 10.0 | 0.00 | 0.13 | 0.02 | 58 | 1018.1 |
| 20260901121430 | 72 | 292 | 6.0 | 11.0 | 0.00 | 0.13 | 0.02 | 57 | 1018.0 |
| 20260901121339 | 72 | 248 | 6.0 | 11.0 | 0.00 | 0.13 | 0.02 | 57 | 1018.0 |
| 20260901121238 | 72 | 315 | 6.0 | 11.0 | 0.00 | 0.13 | 0.02 | 58 | 1018.1 |
| 20260901121035 | 72 | 248 | 6.0 | 10.0 | 0.00 | 0.13 | 0.02 | 60 | 1018.0 |
| 20260901120835 | 72 | 315 | 5.0 | 8.0 | 0.00 | 0.13 | 0.02 | 60 | 1018.1 |
| 20260901120650 | 72 | 248 | 6.0 | 10.0 | 0.00 | 0.13 | 0.02 | 61 | 1018.0 |
| 20260901120510 | 71 | 270 | 6.0 | 10.0 | 0.00 | 0.13 | 0.02 | 60 | 1018.1 |
| 20260901120310 | 71 | 225 | 6.0 | 10.0 | 0.00 | 0.13 | 0.02 | 61 | 1018.2 |
| 20260901120123 | 71 | 225 | 5.0 | 8.0 | 0.00 | 0.13 | 0.02 | 61 | 1018.1 |
| 20260901115935 | 71 | 248 | 5.0 | 10.0 | 0.00 | 0.13 | 0.02 | 62 | 1018.2 |
| 20260901115740 | 71 | 292 | 5.0 | 10.0 | 0.00 | 0.13 | 0.02 | 63 | 1018.1 |
| 20260901115647 | 70 | 225 | 5.0 | 10.0 | 0.00 | 0.13 | 0.02 | 64 | 1018.2 |
| 20260901115548 | 70 | 270 | 6.0 | 10.0 | 0.00 | 0.13 | 0.02 | 63 | 1018.2 |
| 20260901115409 | 70 | 292 | 6.0 | 9.0 | 0.00 | 0.13 | 0.02 | 63 | 1018.2 |
| 20260901115220 | 70 | 270 | 6.0 | 9.0 | 0.00 | 0.13 | 0.02 | 64 | 1018.1 |
| 20260901115039 | 70 | 292 | 6.0 | 9.0 | 0.00 | 0.13 | 0.02 | 65 | 1018.2 |
| 20260901114840 | 70 | 292 | 6.0 | 10.0 | 0.00 | 0.13 | 0.02 | 65 | 1018.2 |
| 20260901114640 | 70 | 248 | 7.0 | 16.0 | 0.00 | 0.13 | 0.02 | 65 | 1018.3 |
| 20260901114502 | 70 | 292 | 6.0 | 16.0 | 0.00 | 0.13 | 0.02 | 65 | 1018.2 |
| 20260901114321 | 70 | 248 | 6.0 | 16.0 | 0.00 | 0.13 | 0.02 | 65 | 1018.3 |
| 20260901114143 | 70 | 225 | 6.0 | 9.0 | 0.00 | 0.13 | 0.02 | 65 | 1018.3 |
| 20260901114000 | 70 | 270 | 6.0 | 10.0 | 0.00 | 0.13 | 0.02 | 66 | 1018.2 |
| 20260901113922 | 70 | 248 | 6.0 | 10.0 | 0.00 | 0.13 | 0.02 | 65 | 1018.3 |
| 20260901113804 | 71 | 292 | 6.0 | 10.0 | 0.00 | 0.13 | 0.02 | 65 | 1018.1 |
| 20260901113621 | 71 | 270 | 6.0 | 10.0 | 0.00 | 0.13 | 0.02 | 66 | 1018.1 |
| 20260901113445 | 71 | 248 | 6.0 | 10.0 | 0.00 | 0.13 | 0.02 | 65 | 1018.1 |
| 20260901113255 | 70 | 248 | 6.0 | 10.0 | 0.00 | 0.13 | 0.02 | 65 | 1018.2 |
| 20260901113100 | 70 | 270 | 5.0 | 10.0 | 0.00 | 0.13 | 0.02 | 65 | 1018.2 |
| 20260901112910 | 70 | 292 | 5.0 | 10.0 | 0.00 | 0.13 | 0.02 | 64 | 1018.1 |
| 20260901112735 | 70 | 292 | 5.0 | 10.0 | 0.00 | 0.13 | 0.02 | 65 | 1018.1 |
| 20260901112545 | 69 | 248 | 6.0 | 10.0 | 0.00 | 0.13 | 0.02 | 66 | 1018.1 |
| 20260901112345 | 69 | 292 | 6.0 | 10.0 | 0.00 | 0.13 | 0.02 | 66 | 1018.2 |
| 20260901112147 | 69 | 270 | 6.0 | 10.0 | 0.00 | 0.13 | 0.02 | 68 | 1018.2 |
| 20260901112111 | 69 | 292 | 6.0 | 10.0 | 0.00 | 0.13 | 0.02 | 68 | 1018.2 |
| 20260901111955 | 69 | 315 | 6.0 | 10.0 | 0.00 | 0.13 | 0.02 | 68 | 1018.3 |
| 20260901111809 | 69 | 225 | 6.0 | 10.0 | 0.00 | 0.13 | 0.02 | 68 | 1018.3 |
| 20260901111615 | 69 | 248 | 6.0 | 10.0 | 0.00 | 0.13 | 0.02 | 70 | 1018.3 |
| 20260901111425 | 69 | 225 | 6.0 | 10.0 | 0.00 | 0.13 | 0.02 | 70 | 1018.3 |
| 20260901111240 | 69 | 292 | 6.0 | 11.0 | 0.00 | 0.13 | 0.02 | 68 | 1018.3 |
| 20260901111045 | 70 | 292 | 6.0 | 11.0 | 0.00 | 0.13 | 0.02 | 67 | 1018.2 |
| 20260901110845 | 70 | 292 | 6.0 | 11.0 | 0.00 | 0.13 | 0.02 | 67 | 1018.3 |
| 20260901110655 | 70 | 248 | 6.0 | 10.0 | 0.00 | 0.13 | 0.02 | 67 | 1018.2 |
| 20260901110515 | 70 | 248 | 6.0 | 10.0 | 0.00 | 0.13 | 0.02 | 67 | 1018.2 |
| 20260901110447 | 70 | 270 | 6.0 | 10.0 | 0.00 | 0.13 | 0.02 | 67 | 1018.2 |
| 20260901110330 | 70 | 270 | 6.0 | 11.0 | 0.00 | 0.13 | 0.02 | 67 | 1018.2 |
| 20260901110145 | 70 | 225 | 6.0 | 11.0 | 0.00 | 0.13 | 0.02 | 66 | 1018.2 |
| 20260901105945 | 70 | 225 | 6.0 | 11.0 | 0.00 | 0.13 | 0.02 | 66 | 1018.2 |
| 20260901105805 | 69 | 292 | 6.0 | 10.0 | 0.00 | 0.13 | 0.02 | 67 | 1018.1 |
| 20260901105610 | 69 | 248 | 6.0 | 10.0 | 0.00 | 0.13 | 0.02 | 66 | 1018.2 |
| 20260901105425 | 70 | 292 | 6.0 | 11.0 | 0.00 | 0.13 | 0.02 | 67 | 1018.2 |
| 20260901105230 | 70 | 248 | 6.0 | 11.0 | 0.00 | 0.13 | 0.02 | 67 | 1018.2 |
| 20260901105045 | 70 | 270 | 7.0 | 11.0 | 0.00 | 0.13 | 0.02 | 67 | 1018.2 |
| 20260901104912 | 70 | 270 | 7.0 | 11.0 | 0.00 | 0.13 | 0.02 | 67 | 1018.2 |
| 20260901104845 | 70 | 270 | 7.0 | 11.0 | 0.00 | 0.13 | 0.02 | 67 | 1018.2 |
| 20260901104705 | 70 | 225 | 7.0 | 12.0 | 0.00 | 0.13 | 0.02 | 67 | 1018.3 |
| 20260901104523 | 70 | 315 | 6.0 | 12.0 | 0.00 | 0.13 | 0.02 | 67 | 1018.2 |
| 20260901104325 | 71 | 248 | 6.0 | 11.0 | 0.00 | 0.13 | 0.02 | 66 | 1018.3 |
| 20260901104145 | 71 | 225 | 5.0 | 10.0 | 0.00 | 0.13 | 0.02 | 66 | 1018.3 |
| 20260901103945 | 70 | 270 | 5.0 | 7.0 | 0.00 | 0.13 | 0.02 | 65 | 1018.1 |
| 20260901103749 | 70 | 315 | 5.0 | 10.0 | 0.00 | 0.13 | 0.02 | 65 | 1018.2 |
| 20260901103555 | 70 | 292 | 6.0 | 10.0 | 0.00 | 0.13 | 0.02 | 66 | 1018.2 |
| 20260901103410 | 70 | 292 | 6.0 | 10.0 | 0.00 | 0.13 | 0.02 | 65 | 1018.2 |
| 20260901103225 | 69 | 248 | 7.0 | 10.0 | 0.00 | 0.13 | 0.02 | 65 | 1018.1 |
| 20260901103035 | 69 | 225 | 7.0 | 10.0 | 0.00 | 0.13 | 0.02 | 66 | 1018.1 |
| 20260901102845 | 69 | 135 | 7.0 | 11.0 | 0.00 | 0.13 | 0.02 | 66 | 1018.1 |
| 20260901102708 | 69 | 225 | 7.0 | 11.0 | 0.00 | 0.13 | 0.02 | 67 | 1018.1 |
| 20260901102530 | 69 | 135 | 7.0 | 11.0 | 0.00 | 0.13 | 0.02 | 67 | 1018.1 |
| 20260901102330 | 69 | 292 | 7.0 | 10.0 | 0.00 | 0.13 | 0.02 | 68 | 1018.2 |
| 20260901102140 | 69 | 270 | 7.0 | 10.0 | 0.00 | 0.13 | 0.02 | 68 | 1018.2 |
| 20260901101940 | 69 | 202 | 7.0 | 10.0 | 0.00 | 0.13 | 0.02 | 69 | 1018.1 |
| 20260901101800 | 69 | 248 | 7.0 | 10.0 | 0.00 | 0.13 | 0.02 | 69 | 1018.1 |
| 20260901101615 | 69 | 292 | 7.0 | 10.0 | 0.00 | 0.13 | 0.02 | 69 | 1018.1 |
| 20260901101522 | 69 | 270 | 7.0 | 10.0 | 0.00 | 0.13 | 0.02 | 69 | 1018.0 |
| 20260901101435 | 69 | 248 | 7.0 | 10.0 | 0.00 | 0.13 | 0.02 | 69 | 1018.1 |
| 20260901101255 | 69 | 248 | 6.0 | 11.0 | 0.00 | 0.13 | 0.02 | 69 | 1018.1 |
| 20260901101054 | 69 | 225 | 6.0 | 11.0 | 0.00 | 0.13 | 0.02 | 69 | 1018.0 |
| 20260901100905 | 69 | 292 | 6.0 | 11.0 | 0.00 | 0.13 | 0.02 | 68 | 1018.1 |
| 20260901100730 | 68 | 248 | 6.0 | 10.0 | 0.00 | 0.13 | 0.02 | 69 | 1018.0 |
| 20260901100545 | 68 | 248 | 7.0 | 10.0 | 0.00 | 0.13 | 0.02 | 69 | 1018.1 |
| 20260901100354 | 68 | 270 | 7.0 | 11.0 | 0.00 | 0.13 | 0.02 | 70 | 1018.1 |
| 20260901100205 | 68 | 248 | 7.0 | 11.0 | 0.00 | 0.13 | 0.02 | 70 | 1018.0 |
| 20260901100025 | 68 | 270 | 8.0 | 11.0 | 0.00 | 0.13 | 0.02 | 70 | 1018.1 |
| 20260901095837 | 68 | 270 | 7.0 | 11.0 | 0.00 | 0.13 | 0.02 | 69 | 1018.0 |
| 20260901095717 | 68 | 270 | 7.0 | 11.0 | 0.00 | 0.13 | 0.02 | 69 | 1018.0 |
| 20260901095640 | 68 | 270 | 7.0 | 11.0 | 0.00 | 0.13 | 0.02 | 70 | 1018.0 |
| 20260901095446 | 68 | 270 | 7.0 | 11.0 | 0.00 | 0.13 | 0.02 | 69 | 1018.1 |
| 20260901095306 | 68 | 225 | 7.0 | 11.0 | 0.00 | 0.13 | 0.02 | 70 | 1018.0 |
| 20260901095115 | 68 | 292 | 7.0 | 10.0 | 0.00 | 0.13 | 0.02 | 71 | 1017.9 |
| 20260901094935 | 68 | 202 | 7.0 | 10.0 | 0.00 | 0.13 | 0.02 | 71 | 1017.9 |
| 20260901094739 | 68 | 292 | 7.0 | 12.0 | 0.00 | 0.13 | 0.02 | 71 | 1018.0 |
| 20260901094545 | 68 | 248 | 7.0 | 12.0 | 0.00 | 0.13 | 0.02 | 71 | 1017.9 |
| 20260901094350 | 68 | 248 | 7.0 | 12.0 | 0.00 | 0.13 | 0.02 | 71 | 1017.9 |
| 20260901094210 | 68 | 270 | 6.0 | 11.0 | 0.00 | 0.13 | 0.02 | 72 | 1017.9 |
| 20260901094010 | 68 | 225 | 7.0 | 11.0 | 0.00 | 0.13 | 0.02 | 72 | 1018.0 |
| 20260901093902 | 68 | 270 | 7.0 | 10.0 | 0.00 | 0.13 | 0.02 | 72 | 1017.9 |
| 20260901093810 | 68 | 248 | 7.0 | 10.0 | 0.00 | 0.14 | 0.02 | 72 | 1017.9 |
| 20260901093620 | 67 | 292 | 6.0 | 11.0 | 0.00 | 0.14 | 0.02 | 73 | 1017.9 |
| 20260901093420 | 67 | 202 | 6.0 | 11.0 | 0.00 | 0.14 | 0.02 | 73 | 1017.8 |
| 20260901093230 | 67 | 270 | 6.0 | 11.0 | 0.00 | 0.14 | 0.02 | 72 | 1017.9 |
| 20260901093045 | 67 | 248 | 6.0 | 11.0 | 0.00 | 0.14 | 0.02 | 73 | 1017.9 |
| 20260901092905 | 67 | 225 | 6.0 | 9.0 | 0.00 | 0.14 | 0.02 | 74 | 1017.9 |
| 20260901092708 | 67 | 270 | 6.0 | 9.0 | 0.00 | 0.16 | 0.02 | 75 | 1017.9 |
| 20260901092525 | 67 | 292 | 5.0 | 8.0 | 0.00 | 0.16 | 0.02 | 75 | 1017.8 |
| 20260901092330 | 67 | 292 | 6.0 | 8.0 | 0.00 | 0.16 | 0.02 | 76 | 1017.8 |
| 20260901092310 | 67 | 248 | 6.0 | 8.0 | 0.00 | 0.16 | 0.02 | 76 | 1017.9 |
| 20260901092131 | 66 | 202 | 6.0 | 8.0 | 0.00 | 0.17 | 0.02 | 76 | 1017.8 |
| 20260901091940 | 66 | 270 | 6.0 | 10.0 | 0.00 | 0.17 | 0.02 | 76 | 1017.7 |
| 20260901091740 | 66 | 248 | 6.0 | 10.0 | 0.00 | 0.17 | 0.02 | 76 | 1017.8 |
| 20260901091546 | 66 | 248 | 6.0 | 10.0 | 0.00 | 0.17 | 0.02 | 77 | 1017.8 |
| 20260901091410 | 66 | 225 | 6.0 | 10.0 | 0.00 | 0.17 | 0.02 | 76 | 1017.8 |
| 20260901091210 | 67 | 292 | 6.0 | 10.0 | 0.00 | 0.17 | 0.02 | 77 | 1017.8 |
| 20260901091030 | 67 | 248 | 6.0 | 10.0 | 0.00 | 0.19 | 0.02 | 77 | 1017.8 |
| 20260901090835 | 67 | 202 | 6.0 | 10.0 | 0.00 | 0.19 | 0.02 | 77 | 1017.7 |
| 20260901090640 | 67 | 225 | 6.0 | 10.0 | 0.00 | 0.19 | 0.02 | 77 | 1017.7 |
| 20260901090602 | 67 | 292 | 6.0 | 9.0 | 0.00 | 0.19 | 0.02 | 77 | 1017.7 |
| 20260901090455 | 67 | 248 | 6.0 | 9.0 | 0.00 | 0.19 | 0.02 | 77 | 1017.8 |
| 20260901090307 | 66 | 315 | 6.0 | 9.0 | 0.00 | 0.20 | 0.02 | 77 | 1017.7 |
| 20260901090130 | 66 | 248 | 6.0 | 8.0 | 0.00 | 0.20 | 0.02 | 77 | 1017.6 |
| 20260901085942 | 66 | 225 | 6.0 | 8.0 | 0.00 | 0.20 | 0.02 | 77 | 1017.7 |
| 20260901085755 | 66 | 248 | 6.0 | 8.0 | 0.00 | 0.20 | 0.02 | 77 | 1017.7 |
| 20260901085554 | 66 | 270 | 6.0 | 11.0 | 0.00 | 0.20 | 0.02 | 77 | 1017.7 |
| 20260901085410 | 66 | 202 | 7.0 | 13.0 | 0.00 | 0.20 | 0.02 | 78 | 1017.7 |
| 20260901085230 | 66 | 248 | 7.0 | 13.0 | 0.00 | 0.20 | 0.02 | 77 | 1017.6 |
| 20260901085044 | 66 | 248 | 6.0 | 13.0 | 0.00 | 0.22 | 0.02 | 78 | 1017.6 |
| 20260901084845 | 66 | 270 | 6.0 | 10.0 | 0.00 | 0.22 | 0.02 | 79 | 1017.5 |
| 20260901084819 | 66 | 270 | 6.0 | 10.0 | 0.00 | 0.22 | 0.02 | 79 | 1017.5 |
| 20260901084645 | 66 | 292 | 6.0 | 10.0 | 0.00 | 0.22 | 0.02 | 79 | 1017.6 |
| 20260901084446 | 66 | 292 | 6.0 | 10.0 | 0.00 | 0.24 | 0.02 | 79 | 1017.6 |
| 20260901084302 | 66 | 202 | 7.0 | 7.0 | 0.00 | 0.24 | 0.02 | 79 | 1017.6 |
| 20260901084125 | 65 | 292 | 7.0 | 10.0 | 0.00 | 0.24 | 0.02 | 79 | 1017.6 |
| 20260901083935 | 65 | 248 | 7.0 | 10.0 | 0.00 | 0.24 | 0.02 | 80 | 1017.6 |
| 20260901083736 | 65 | 202 | 8.0 | 10.0 | 0.00 | 0.24 | 0.02 | 79 | 1017.5 |
| 20260901083555 | 65 | 225 | 8.0 | 10.0 | 0.00 | 0.24 | 0.02 | 79 | 1017.5 |
| 20260901083420 | 65 | 270 | 7.0 | 10.0 | 0.00 | 0.24 | 0.02 | 80 | 1017.5 |
| 20260901083240 | 65 | 270 | 7.0 | 10.0 | 0.00 | 0.24 | 0.02 | 80 | 1017.6 |
| 20260901083212 | 65 | 248 | 7.0 | 10.0 | 0.00 | 0.24 | 0.02 | 80 | 1017.5 |
| 20260901083045 | 65 | 315 | 8.0 | 12.0 | 0.00 | 0.24 | 0.02 | 80 | 1017.4 |
| 20260901082845 | 65 | 270 | 7.0 | 12.0 | 0.00 | 0.24 | 0.02 | 81 | 1017.4 |
| 20260901082707 | 65 | 292 | 7.0 | 13.0 | 0.00 | 0.24 | 0.02 | 81 | 1017.4 |
| 20260901082524 | 65 | 270 | 6.0 | 13.0 | 0.00 | 0.24 | 0.02 | 81 | 1017.4 |
| 20260901082330 | 65 | 225 | 6.0 | 13.0 | 0.00 | 0.24 | 0.02 | 81 | 1017.4 |
| 20260901082140 | 65 | 248 | 6.0 | 9.0 | 0.00 | 0.24 | 0.02 | 82 | 1017.4 |
| 20260901081945 | 65 | 292 | 6.0 | 9.0 | 0.00 | 0.24 | 0.02 | 82 | 1017.4 |
| 20260901081755 | 64 | 270 | 6.0 | 10.0 | 0.00 | 0.24 | 0.02 | 82 | 1017.4 |
| 20260901081605 | 64 | 225 | 6.0 | 10.0 | 0.00 | 0.24 | 0.02 | 82 | 1017.3 |
| 20260901081425 | 64 | 248 | 6.0 | 12.0 | 0.00 | 0.24 | 0.02 | 82 | 1017.3 |
| 20260901081402 | 64 | 292 | 6.0 | 12.0 | 0.00 | 0.24 | 0.02 | 83 | 1017.3 |
| 20260901081250 | 64 | 248 | 6.0 | 12.0 | 0.00 | 0.24 | 0.02 | 83 | 1017.3 |
| 20260901081109 | 64 | 248 | 6.0 | 12.0 | 0.00 | 0.24 | 0.02 | 83 | 1017.4 |
| 20260901080920 | 64 | 225 | 6.0 | 12.0 | 0.00 | 0.24 | 0.02 | 83 | 1017.4 |
| 20260901080729 | 64 | 248 | 6.0 | 9.0 | 0.00 | 0.24 | 0.02 | 82 | 1017.3 |
| 20260901080535 | 64 | 248 | 6.0 | 10.0 | 0.00 | 0.24 | 0.02 | 83 | 1017.3 |
| 20260901080345 | 64 | 248 | 6.0 | 10.0 | 0.00 | 0.24 | 0.02 | 83 | 1017.3 |
| 20260901080205 | 64 | 248 | 6.0 | 10.0 | 0.00 | 0.24 | 0.02 | 83 | 1017.3 |
| 20260901080013 | 64 | 225 | 5.0 | 10.0 | 0.00 | 0.24 | 0.02 | 83 | 1017.2 |
| 20260901075835 | 64 | 292 | 6.0 | 8.0 | 0.00 | 0.24 | 0.02 | 84 | 1017.2 |
| 20260901075737 | 64 | 292 | 6.0 | 11.0 | 0.00 | 0.24 | 0.02 | 84 | 1017.2 |
| 20260901075650 | 64 | 248 | 6.0 | 11.0 | 0.00 | 0.24 | 0.02 | 85 | 1017.1 |
| 20260901075450 | 64 | 158 | 6.0 | 11.0 | 0.00 | 0.24 | 0.02 | 85 | 1017.2 |
| 20260901075307 | 64 | 292 | 6.0 | 11.0 | 0.00 | 0.24 | 0.02 | 85 | 1017.2 |
| 20260901075112 | 64 | 225 | 6.0 | 9.0 | 0.00 | 0.24 | 0.02 | 85 | 1017.1 |
| 20260901074935 | 64 | 225 | 6.0 | 9.0 | 0.00 | 0.24 | 0.02 | 85 | 1017.2 |
| 20260901074755 | 64 | 202 | 6.0 | 9.0 | 0.00 | 0.24 | 0.02 | 85 | 1017.2 |
| 20260901074610 | 64 | 202 | 6.0 | 10.0 | 0.00 | 0.24 | 0.02 | 86 | 1017.2 |
| 20260901074429 | 64 | 225 | 6.0 | 10.0 | 0.00 | 0.24 | 0.02 | 85 | 1017.1 |
| 20260901074235 | 64 | 202 | 6.0 | 8.0 | 0.00 | 0.24 | 0.02 | 86 | 1017.1 |
| 20260901074212 | 64 | 248 | 5.0 | 10.0 | 0.00 | 0.24 | 0.02 | 86 | 1017.1 |
| 20260901074054 | 64 | 292 | 6.0 | 10.0 | 0.00 | 0.24 | 0.02 | 86 | 1017.1 |
| 20260901073857 | 63 | 270 | 6.0 | 11.0 | 0.00 | 0.24 | 0.02 | 86 | 1017.2 |
| 20260901073700 | 63 | 225 | 6.0 | 11.0 | 0.00 | 0.24 | 0.02 | 86 | 1017.1 |
| 20260901073505 | 63 | 248 | 6.0 | 11.0 | 0.00 | 0.24 | 0.02 | 86 | 1017.1 |
| 20260901073310 | 63 | 248 | 6.0 | 9.0 | 0.00 | 0.24 | 0.02 | 86 | 1017.1 |
| 20260901073125 | 63 | 225 | 6.0 | 10.0 | 0.00 | 0.24 | 0.02 | 87 | 1017.1 |
| 20260901072940 | 63 | 270 | 6.0 | 10.0 | 0.00 | 0.24 | 0.02 | 87 | 1017.1 |
| 20260901072755 | 63 | 248 | 6.0 | 11.0 | 0.00 | 0.24 | 0.02 | 87 | 1017.1 |
| 20260901072615 | 63 | 270 | 7.0 | 11.0 | 0.00 | 0.24 | 0.02 | 87 | 1017.0 |
| 20260901072435 | 63 | 270 | 6.0 | 11.0 | 0.00 | 0.24 | 0.02 | 87 | 1017.1 |
| 20260901072345 | 63 | 292 | 6.0 | 11.0 | 0.00 | 0.24 | 0.02 | 87 | 1017.0 |
| 20260901072240 | 63 | 248 | 6.0 | 11.0 | 0.00 | 0.24 | 0.02 | 87 | 1017.0 |
| 20260901072050 | 63 | 225 | 6.0 | 11.0 | 0.00 | 0.24 | 0.02 | 87 | 1017.0 |
| 20260901071905 | 63 | 225 | 6.0 | 10.0 | 0.00 | 0.24 | 0.02 | 87 | 1017.1 |
| 20260901071710 | 63 | 248 | 6.0 | 10.0 | 0.00 | 0.24 | 0.02 | 87 | 1016.9 |
| 20260901071520 | 63 | 270 | 6.0 | 9.0 | 0.00 | 0.24 | 0.02 | 87 | 1016.9 |
| 20260901071330 | 63 | 248 | 6.0 | 11.0 | 0.00 | 0.24 | 0.02 | 87 | 1016.9 |
| 20260901071135 | 63 | 292 | 6.0 | 11.0 | 0.00 | 0.24 | 0.02 | 87 | 1016.9 |
| 20260901070945 | 63 | 225 | 7.0 | 11.0 | 0.00 | 0.24 | 0.02 | 87 | 1016.8 |
| 20260901070800 | 63 | 292 | 6.0 | 11.0 | 0.00 | 0.24 | 0.02 | 87 | 1017.0 |
| 20260901070727 | 63 | 292 | 6.0 | 11.0 | 0.00 | 0.24 | 0.02 | 87 | 1016.9 |
| 20260901070609 | 63 | 248 | 5.0 | 9.0 | 0.00 | 0.24 | 0.02 | 87 | 1017.0 |
| 20260901070410 | 63 | 270 | 6.0 | 10.0 | 0.00 | 0.24 | 0.02 | 87 | 1016.9 |
| 20260901070230 | 63 | 248 | 6.0 | 10.0 | 0.00 | 0.24 | 0.02 | 87 | 1016.8 |
| 20260901070030 | 63 | 315 | 6.0 | 10.0 | 0.00 | 0.24 | 0.02 | 88 | 1016.8 |
| 20260901065838 | 63 | 248 | 6.0 | 10.0 | 0.00 | 0.24 | 0.02 | 88 | 1016.9 |
| 20260901065640 | 62 | 248 | 6.0 | 10.0 | 0.00 | 0.24 | 0.02 | 88 | 1016.8 |
| 20260901065440 | 62 | 270 | 6.0 | 10.0 | 0.00 | 0.24 | 0.02 | 88 | 1016.8 |
| 20260901065300 | 62 | 270 | 6.0 | 8.0 | 0.00 | 0.24 | 0.02 | 88 | 1016.8 |
| 20260901065105 | 62 | 270 | 6.0 | 8.0 | 0.00 | 0.24 | 0.02 | 88 | 1016.8 |
| 20260901064930 | 62 | 248 | 6.0 | 10.0 | 0.00 | 0.24 | 0.02 | 88 | 1016.7 |
| 20260901064838 | 62 | 248 | 6.0 | 10.0 | 0.00 | 0.24 | 0.02 | 88 | 1016.8 |
| 20260901064730 | 62 | 225 | 6.0 | 10.0 | 0.00 | 0.24 | 0.02 | 88 | 1016.8 |
| 20260901064543 | 62 | 292 | 6.0 | 10.0 | 0.00 | 0.24 | 0.02 | 88 | 1016.8 |
| 20260901064350 | 62 | 270 | 6.0 | 9.0 | 0.00 | 0.24 | 0.02 | 88 | 1016.7 |
| 20260901064200 | 62 | 292 | 6.0 | 9.0 | 0.00 | 0.24 | 0.02 | 88 | 1016.7 |
| 20260901064010 | 62 | 292 | 6.0 | 9.0 | 0.00 | 0.24 | 0.02 | 89 | 1016.7 |
| 20260901063830 | 62 | 225 | 6.0 | 9.0 | 0.00 | 0.24 | 0.02 | 89 | 1016.6 |
| 20260901063650 | 62 | 270 | 6.0 | 9.0 | 0.00 | 0.24 | 0.02 | 89 | 1016.6 |
| 20260901063505 | 62 | 292 | 6.0 | 10.0 | 0.00 | 0.24 | 0.02 | 89 | 1016.6 |
| 20260901063320 | 62 | 292 | 6.0 | 10.0 | 0.00 | 0.24 | 0.02 | 89 | 1016.5 |
| 20260901063217 | 62 | 248 | 6.0 | 10.0 | 0.00 | 0.24 | 0.02 | 89 | 1016.7 |
| 20260901063140 | 62 | 225 | 6.0 | 10.0 | 0.00 | 0.24 | 0.02 | 89 | 1016.5 |
| 20260901062950 | 62 | 248 | 6.0 | 10.0 | 0.00 | 0.24 | 0.02 | 89 | 1016.6 |
| 20260901062800 | 62 | 248 | 6.0 | 10.0 | 0.00 | 0.24 | 0.02 | 89 | 1016.6 |
| 20260901062610 | 62 | 270 | 6.0 | 10.0 | 0.00 | 0.24 | 0.02 | 89 | 1016.6 |
| 20260901062420 | 62 | 292 | 6.0 | 10.0 | 0.00 | 0.24 | 0.02 | 89 | 1016.4 |
| 20260901062236 | 62 | 225 | 6.0 | 10.0 | 0.00 | 0.24 | 0.02 | 89 | 1016.5 |
| 20260901062035 | 62 | 225 | 6.0 | 11.0 | 0.00 | 0.24 | 0.02 | 89 | 1016.5 |
| 20260901061900 | 62 | 248 | 6.0 | 11.0 | 0.00 | 0.24 | 0.02 | 89 | 1016.4 |
| 20260901061720 | 62 | 292 | 6.0 | 11.0 | 0.00 | 0.24 | 0.02 | 89 | 1016.4 |
| 20260901061525 | 62 | 270 | 6.0 | 11.0 | 0.00 | 0.24 | 0.02 | 89 | 1016.4 |
| 20260901061340 | 62 | 270 | 6.0 | 10.0 | 0.00 | 0.24 | 0.02 | 89 | 1016.4 |
| 20260901061321 | 62 | 225 | 6.0 | 10.0 | 0.00 | 0.24 | 0.02 | 89 | 1016.4 |
| 20260901061200 | 62 | 225 | 6.0 | 10.0 | 0.00 | 0.24 | 0.02 | 89 | 1016.3 |
| 20260901061015 | 62 | 292 | 6.0 | 10.0 | 0.00 | 0.24 | 0.02 | 89 | 1016.3 |
| 20260901060840 | 62 | 225 | 6.0 | 11.0 | 0.00 | 0.24 | 0.02 | 89 | 1016.3 |
| 20260901060650 | 62 | 248 | 6.0 | 11.0 | 0.00 | 0.24 | 0.02 | 89 | 1016.3 |
| 20260901060505 | 62 | 225 | 6.0 | 11.0 | 0.00 | 0.24 | 0.02 | 89 | 1016.3 |
| 20260901060325 | 62 | 248 | 6.0 | 8.0 | 0.00 | 0.24 | 0.02 | 90 | 1016.3 |
| 20260901060130 | 62 | 292 | 5.0 | 10.0 | 0.00 | 0.24 | 0.02 | 90 | 1016.2 |
| 20260901055935 | 61 | 270 | 5.0 | 10.0 | 0.00 | 0.24 | 0.02 | 90 | 1016.2 |
| 20260901055757 | 61 | 202 | 6.0 | 10.0 | 0.00 | 0.24 | 0.02 | 90 | 1016.3 |
| 20260901055713 | 61 | 270 | 5.0 | 10.0 | 0.00 | 0.24 | 0.02 | 90 | 1016.4 |
| 20260901055605 | 61 | 225 | 5.0 | 8.0 | 0.00 | 0.24 | 0.02 | 90 | 1016.3 |
| 20260901055415 | 61 | 270 | 5.0 | 9.0 | 0.00 | 0.24 | 0.02 | 90 | 1016.2 |
| 20260901055235 | 61 | 225 | 5.0 | 9.0 | 0.00 | 0.24 | 0.02 | 90 | 1016.2 |
| 20260901055035 | 61 | 248 | 6.0 | 9.0 | 0.00 | 0.24 | 0.02 | 90 | 1016.2 |
| 20260901054855 | 61 | 270 | 6.0 | 13.0 | 0.00 | 0.24 | 0.02 | 90 | 1016.2 |
| 20260901054708 | 61 | 248 | 6.0 | 13.0 | 0.00 | 0.24 | 0.02 | 90 | 1016.1 |
| 20260901054510 | 61 | 270 | 6.0 | 9.0 | 0.00 | 0.24 | 0.02 | 90 | 1016.0 |
| 20260901054316 | 61 | 292 | 6.0 | 9.0 | 0.00 | 0.24 | 0.02 | 90 | 1016.1 |
| 20260901054152 | 61 | 248 | 6.0 | 9.0 | 0.00 | 0.24 | 0.02 | 90 | 1016.1 |
| 20260901054122 | 61 | 248 | 6.0 | 9.0 | 0.00 | 0.24 | 0.02 | 90 | 1016.1 |
| 20260901053925 | 61 | 248 | 6.0 | 9.0 | 0.00 | 0.24 | 0.02 | 90 | 1016.1 |
| 20260901053735 | 61 | 270 | 6.0 | 9.0 | 0.00 | 0.24 | 0.02 | 90 | 1016.1 |
| 20260901053625 | 61 | 248 | 6.0 | 9.0 | 0.00 | 0.24 | 0.02 | 90 | 1016.1 |
| 20260901053426 | 61 | 292 | 6.0 | 9.0 | 0.00 | 0.24 | 0.02 | 90 | 1016.0 |
| 20260901053230 | 61 | 225 | 6.0 | 9.0 | 0.00 | 0.24 | 0.02 | 90 | 1016.0 |
| 20260901053039 | 61 | 225 | 6.0 | 9.0 | 0.00 | 0.24 | 0.02 | 91 | 1016.0 |
| 20260901052840 | 61 | 225 | 6.0 | 11.0 | 0.00 | 0.24 | 0.02 | 91 | 1016.0 |
| 20260901052645 | 61 | 270 | 7.0 | 11.0 | 0.00 | 0.24 | 0.02 | 91 | 1016.0 |
| 20260901052517 | 61 | 270 | 6.0 | 11.0 | 0.00 | 0.24 | 0.02 | 91 | 1016.0 |
| 20260901052502 | 61 | 270 | 6.0 | 11.0 | 0.00 | 0.24 | 0.02 | 91 | 1016.0 |
| 20260901052310 | 61 | 270 | 6.0 | 9.0 | 0.00 | 0.24 | 0.02 | 91 | 1015.9 |
| 20260901052125 | 61 | 292 | 6.0 | 9.0 | 0.00 | 0.24 | 0.02 | 91 | 1015.9 |
| 20260901051930 | 61 | 292 | 6.0 | 9.0 | 0.00 | 0.24 | 0.02 | 91 | 1015.9 |
| 20260901051730 | 61 | 270 | 6.0 | 8.0 | 0.00 | 0.24 | 0.02 | 91 | 1015.9 |
| 20260901051550 | 61 | 248 | 6.0 | 8.0 | 0.00 | 0.24 | 0.02 | 91 | 1015.9 |
| 20260901051400 | 61 | 292 | 6.0 | 8.0 | 0.00 | 0.24 | 0.02 | 91 | 1015.8 |
| 20260901051200 | 61 | 202 | 6.0 | 8.0 | 0.00 | 0.24 | 0.02 | 91 | 1015.8 |
| 20260901051014 | 61 | 248 | 6.0 | 8.0 | 0.00 | 0.24 | 0.02 | 92 | 1015.8 |
| 20260901050828 | 61 | 292 | 6.0 | 8.0 | 0.00 | 0.24 | 0.02 | 92 | 1015.8 |
| 20260901050640 | 61 | 248 | 6.0 | 8.0 | 0.00 | 0.24 | 0.02 | 92 | 1015.8 |
| 20260901050501 | 61 | 225 | 6.0 | 7.0 | 0.00 | 0.24 | 0.02 | 92 | 1015.8 |
| 20260901050310 | 61 | 270 | 6.0 | 10.0 | 0.00 | 0.24 | 0.02 | 92 | 1015.7 |
| 20260901050128 | 61 | 202 | 6.0 | 10.0 | 0.00 | 0.24 | 0.02 | 92 | 1015.7 |
| 20260901045935 | 61 | 248 | 6.0 | 10.0 | 0.00 | 0.24 | 0.02 | 92 | 1015.7 |
| 20260901045745 | 61 | 270 | 6.0 | 10.0 | 0.00 | 0.24 | 0.02 | 92 | 1015.7 |
| 20260901045559 | 61 | 248 | 6.0 | 9.0 | 0.00 | 0.24 | 0.02 | 92 | 1015.7 |
| 20260901045415 | 61 | 270 | 6.0 | 9.0 | 0.00 | 0.24 | 0.02 | 92 | 1015.7 |
| 20260901045235 | 61 | 202 | 6.0 | 9.0 | 0.00 | 0.24 | 0.02 | 92 | 1015.6 |
| 20260901045114 | 61 | 202 | 6.0 | 10.0 | 0.00 | 0.24 | 0.02 | 92 | 1015.6 |
| 20260901045039 | 61 | 202 | 6.0 | 10.0 | 0.00 | 0.24 | 0.02 | 92 | 1015.7 |
| 20260901044900 | 61 | 248 | 6.0 | 10.0 | 0.00 | 0.24 | 0.02 | 92 | 1015.6 |
| 20260901044720 | 61 | 292 | 6.0 | 10.0 | 0.00 | 0.24 | 0.02 | 92 | 1015.4 |
| 20260901044543 | 61 | 248 | 5.0 | 9.0 | 0.00 | 0.24 | 0.02 | 92 | 1015.5 |
| 20260901044400 | 61 | 248 | 5.0 | 8.0 | 0.00 | 0.24 | 0.02 | 92 | 1015.5 |
| 20260901044213 | 61 | 248 | 5.0 | 9.0 | 0.00 | 0.24 | 0.02 | 92 | 1015.4 |
| 20260901044025 | 61 | 248 | 5.0 | 9.0 | 0.00 | 0.24 | 0.02 | 92 | 1015.4 |
| 20260901043845 | 61 | 225 | 5.0 | 8.0 | 0.00 | 0.24 | 0.02 | 92 | 1015.4 |
| 20260901043650 | 61 | 270 | 5.0 | 9.0 | 0.00 | 0.24 | 0.02 | 92 | 1015.3 |
| 20260901043547 | 61 | 248 | 5.0 | 9.0 | 0.00 | 0.24 | 0.02 | 92 | 1015.4 |
| 20260901043510 | 61 | 225 | 5.0 | 9.0 | 0.00 | 0.24 | 0.02 | 92 | 1015.3 |
| 20260901043328 | 61 | 202 | 5.0 | 9.0 | 0.00 | 0.24 | 0.02 | 92 | 1015.4 |
| 20260901043130 | 61 | 248 | 5.0 | 9.0 | 0.00 | 0.24 | 0.02 | 91 | 1015.3 |
| 20260901042950 | 61 | 315 | 6.0 | 9.0 | 0.00 | 0.24 | 0.02 | 91 | 1015.3 |
| 20260901042755 | 61 | 248 | 6.0 | 9.0 | 0.00 | 0.24 | 0.02 | 91 | 1015.3 |
| 20260901042615 | 61 | 248 | 5.0 | 8.0 | 0.00 | 0.24 | 0.02 | 92 | 1015.2 |
| 20260901042440 | 61 | 248 | 5.0 | 7.0 | 0.00 | 0.24 | 0.02 | 92 | 1015.1 |
| 20260901042300 | 61 | 202 | 6.0 | 8.0 | 0.00 | 0.24 | 0.02 | 92 | 1015.2 |
| 20260901042120 | 61 | 225 | 6.0 | 8.0 | 0.00 | 0.24 | 0.02 | 92 | 1015.2 |
| 20260901041923 | 61 | 248 | 6.0 | 9.0 | 0.00 | 0.24 | 0.02 | 92 | 1015.2 |
| 20260901041848 | 61 | 225 | 6.0 | 9.0 | 0.00 | 0.24 | 0.02 | 92 | 1015.1 |
| 20260901041735 | 61 | 292 | 6.0 | 9.0 | 0.00 | 0.24 | 0.02 | 92 | 1015.1 |
| 20260901041545 | 61 | 315 | 6.0 | 10.0 | 0.00 | 0.24 | 0.02 | 92 | 1015.1 |
| 20260901041404 | 60 | 270 | 7.0 | 10.0 | 0.00 | 0.24 | 0.02 | 92 | 1015.0 |
| 20260901041220 | 60 | 270 | 7.0 | 10.0 | 0.00 | 0.24 | 0.02 | 92 | 1015.1 |
| 20260901041039 | 60 | 248 | 6.0 | 10.0 | 0.00 | 0.24 | 0.02 | 92 | 1015.1 |
| 20260901040855 | 60 | 225 | 6.0 | 10.0 | 0.00 | 0.24 | 0.02 | 92 | 1015.1 |
| 20260901040715 | 60 | 292 | 6.0 | 10.0 | 0.00 | 0.24 | 0.02 | 92 | 1015.1 |
| 20260901040525 | 60 | 225 | 6.0 | 10.0 | 0.00 | 0.24 | 0.02 | 92 | 1015.0 |
| 20260901040340 | 60 | 248 | 5.0 | 8.0 | 0.00 | 0.24 | 0.02 | 92 | 1014.9 |
| 20260901040145 | 60 | 225 | 5.0 | 8.0 | 0.00 | 0.24 | 0.02 | 93 | 1015.0 |
| 20260901040026 | 60 | 270 | 5.0 | 8.0 | 0.00 | 0.24 | 0.02 | 93 | 1015.0 |
| 20260901035945 | 60 | 270 | 5.0 | 8.0 | 0.00 | 0.24 | 0.02 | 93 | 1015.0 |
| 20260901035745 | 60 | 270 | 5.0 | 7.0 | 0.00 | 0.24 | 0.02 | 93 | 1015.0 |
| 20260901035604 | 60 | 225 | 6.0 | 8.0 | 0.00 | 0.24 | 0.02 | 93 | 1015.0 |
| 20260901035405 | 60 | 225 | 6.0 | 10.0 | 0.00 | 0.24 | 0.02 | 92 | 1015.0 |
| 20260901035205 | 60 | 270 | 6.0 | 10.0 | 0.00 | 0.24 | 0.02 | 92 | 1014.9 |
| 20260901035025 | 60 | 292 | 6.0 | 10.0 | 0.00 | 0.24 | 0.02 | 92 | 1014.9 |
| 20260901034835 | 60 | 225 | 6.0 | 11.0 | 0.00 | 0.24 | 0.02 | 92 | 1014.9 |
| 20260901034655 | 60 | 202 | 6.0 | 11.0 | 0.00 | 0.24 | 0.02 | 92 | 1014.9 |
| 20260901034515 | 60 | 225 | 6.0 | 11.0 | 0.00 | 0.24 | 0.02 | 92 | 1014.9 |
| 20260901034330 | 60 | 270 | 6.0 | 10.0 | 0.00 | 0.24 | 0.02 | 92 | 1014.8 |
| 20260901034135 | 60 | 180 | 5.0 | 10.0 | 0.00 | 0.24 | 0.02 | 92 | 1014.8 |
| 20260901034127 | 60 | 248 | 6.0 | 10.0 | 0.00 | 0.24 | 0.02 | 92 | 1014.8 |
| 20260901033950 | 60 | 248 | 6.0 | 10.0 | 0.00 | 0.24 | 0.02 | 92 | 1014.8 |
| 20260901033755 | 60 | 180 | 5.0 | 9.0 | 0.00 | 0.24 | 0.02 | 92 | 1014.7 |
| 20260901033600 | 60 | 225 | 5.0 | 9.0 | 0.00 | 0.24 | 0.02 | 92 | 1014.8 |
| 20260901033410 | 60 | 270 | 5.0 | 8.0 | 0.00 | 0.24 | 0.02 | 92 | 1014.8 |
| 20260901033220 | 60 | 292 | 5.0 | 7.0 | 0.00 | 0.24 | 0.02 | 92 | 1014.8 |
| 20260901033035 | 60 | 225 | 5.0 | 7.0 | 0.00 | 0.24 | 0.02 | 93 | 1014.7 |
| 20260901032850 | 60 | 270 | 5.0 | 8.0 | 0.00 | 0.24 | 0.02 | 92 | 1014.7 |
| 20260901032659 | 60 | 248 | 5.0 | 9.0 | 0.00 | 0.24 | 0.02 | 93 | 1014.7 |
| 20260901032557 | 60 | 270 | 5.0 | 9.0 | 0.00 | 0.24 | 0.02 | 93 | 1014.6 |
| 20260901032518 | 60 | 270 | 5.0 | 9.0 | 0.00 | 0.24 | 0.02 | 93 | 1014.6 |
| 20260901032330 | 60 | 248 | 5.0 | 9.0 | 0.00 | 0.24 | 0.02 | 93 | 1014.7 |
| 20260901032135 | 60 | 270 | 5.0 | 8.0 | 0.00 | 0.24 | 0.02 | 93 | 1014.7 |
| 20260901031935 | 60 | 225 | 5.0 | 8.0 | 0.00 | 0.24 | 0.02 | 93 | 1014.7 |
| 20260901031750 | 60 | 225 | 5.0 | 8.0 | 0.00 | 0.24 | 0.02 | 93 | 1014.7 |
| 20260901031600 | 60 | 270 | 5.0 | 8.0 | 0.00 | 0.24 | 0.02 | 93 | 1014.6 |
| 20260901031400 | 60 | 292 | 5.0 | 7.0 | 0.00 | 0.24 | 0.02 | 93 | 1014.6 |
| 20260901031215 | 60 | 248 | 5.0 | 7.0 | 0.00 | 0.24 | 0.02 | 93 | 1014.7 |
| 20260901031024 | 60 | 270 | 5.0 | 9.0 | 0.00 | 0.24 | 0.02 | 93 | 1014.6 |
| 20260901030835 | 60 | 248 | 4.0 | 9.0 | 0.00 | 0.24 | 0.02 | 93 | 1014.7 |
| 20260901030735 | 60 | 225 | 4.0 | 9.0 | 0.00 | 0.24 | 0.02 | 93 | 1014.6 |
| 20260901030540 | 60 | 270 | 4.0 | 5.0 | 0.00 | 0.24 | 0.02 | 93 | 1014.7 |
| 20260901030340 | 60 | 270 | 4.0 | 5.0 | 0.00 | 0.24 | 0.02 | 94 | 1014.6 |
| 20260901030147 | 60 | 202 | 4.0 | 7.0 | 0.00 | 0.24 | 0.02 | 94 | 1014.6 |
| 20260901025955 | 60 | 270 | 4.0 | 7.0 | 0.00 | 0.24 | 0.02 | 93 | 1014.7 |
| 20260901025800 | 60 | 248 | 5.0 | 7.0 | 0.00 | 0.24 | 0.02 | 93 | 1014.7 |
| 20260901025642 | 60 | 270 | 5.0 | 7.0 | 0.00 | 0.24 | 0.02 | 93 | 1014.6 |
| 20260901025615 | 60 | 248 | 5.0 | 7.0 | 0.00 | 0.24 | 0.02 | 93 | 1014.6 |
| 20260901025417 | 60 | 292 | 5.0 | 7.0 | 0.00 | 0.24 | 0.02 | 93 | 1014.7 |
| 20260901025225 | 60 | 248 | 5.0 | 7.0 | 0.00 | 0.24 | 0.02 | 93 | 1014.6 |
| 20260901025030 | 60 | 270 | 6.0 | 10.0 | 0.00 | 0.24 | 0.02 | 93 | 1014.7 |
| 20260901024850 | 60 | 292 | 6.0 | 10.0 | 0.00 | 0.24 | 0.02 | 93 | 1014.6 |
| 20260901024705 | 60 | 248 | 6.0 | 10.0 | 0.00 | 0.24 | 0.02 | 93 | 1014.6 |
| 20260901024515 | 60 | 315 | 6.0 | 10.0 | 0.00 | 0.24 | 0.02 | 93 | 1014.5 |
| 20260901024315 | 60 | 270 | 6.0 | 10.0 | 0.00 | 0.24 | 0.02 | 93 | 1014.6 |
| 20260901024130 | 60 | 270 | 6.0 | 10.0 | 0.00 | 0.24 | 0.02 | 93 | 1014.6 |
| 20260901024044 | 60 | 225 | 6.0 | 10.0 | 0.00 | 0.24 | 0.02 | 93 | 1014.6 |
| 20260901023937 | 60 | 248 | 6.0 | 10.0 | 0.00 | 0.24 | 0.02 | 93 | 1014.5 |
| 20260901023757 | 60 | 225 | 6.0 | 10.0 | 0.00 | 0.24 | 0.02 | 93 | 1014.5 |
| 20260901023620 | 60 | 225 | 6.0 | 10.0 | 0.00 | 0.24 | 0.02 | 93 | 1014.5 |
| 20260901023441 | 60 | 202 | 5.0 | 10.0 | 0.00 | 0.24 | 0.02 | 93 | 1014.4 |
| 20260901023245 | 60 | 292 | 5.0 | 10.0 | 0.00 | 0.24 | 0.02 | 93 | 1014.4 |
| 20260901023055 | 60 | 248 | 6.0 | 9.0 | 0.00 | 0.24 | 0.02 | 93 | 1014.4 |
| 20260901022917 | 60 | 202 | 5.0 | 9.0 | 0.00 | 0.24 | 0.02 | 93 | 1014.5 |
| 20260901022721 | 60 | 248 | 5.0 | 9.0 | 0.00 | 0.24 | 0.02 | 93 | 1014.4 |
| 20260901022535 | 60 | 225 | 5.0 | 10.0 | 0.00 | 0.24 | 0.02 | 93 | 1014.4 |
| 20260901022340 | 59 | 270 | 5.0 | 10.0 | 0.00 | 0.24 | 0.02 | 93 | 1014.4 |
| 20260901022140 | 59 | 225 | 5.0 | 8.0 | 0.00 | 0.24 | 0.02 | 94 | 1014.5 |
| 20260901021955 | 59 | 225 | 5.0 | 8.0 | 0.00 | 0.24 | 0.02 | 94 | 1014.4 |
| 20260901021817 | 59 | 202 | 5.0 | 9.0 | 0.00 | 0.24 | 0.02 | 94 | 1014.4 |
| 20260901021636 | 59 | 202 | 6.0 | 9.0 | 0.00 | 0.24 | 0.02 | 94 | 1014.4 |
| 20260901021455 | 59 | 202 | 6.0 | 9.0 | 0.00 | 0.24 | 0.02 | 93 | 1014.4 |
| 20260901021315 | 59 | 270 | 6.0 | 8.0 | 0.00 | 0.24 | 0.02 | 94 | 1014.4 |
| 20260901021130 | 59 | 180 | 6.0 | 11.0 | 0.00 | 0.24 | 0.02 | 94 | 1014.3 |
| 20260901020930 | 59 | 225 | 6.0 | 11.0 | 0.00 | 0.24 | 0.02 | 94 | 1014.3 |
| 20260901020735 | 59 | 225 | 5.0 | 10.0 | 0.00 | 0.24 | 0.02 | 94 | 1014.3 |
| 20260901020637 | 59 | 202 | 5.0 | 10.0 | 0.00 | 0.24 | 0.02 | 94 | 1014.3 |
| 20260901020545 | 59 | 270 | 5.0 | 10.0 | 0.02 | 0.24 | 0.02 | 94 | 1014.3 |
| 20260901020405 | 59 | 270 | 5.0 | 10.0 | 0.02 | 0.24 | 0.02 | 94 | 1014.3 |
| 20260901020210 | 59 | 248 | 5.0 | 10.0 | 0.02 | 0.24 | 0.02 | 94 | 1014.2 |
| 20260901020030 | 59 | 248 | 4.0 | 7.0 | 0.02 | 0.24 | 0.02 | 94 | 1014.2 |
| 20260901015840 | 59 | 202 | 5.0 | 7.0 | 0.02 | 0.24 | 0.02 | 94 | 1014.2 |
| 20260901015643 | 59 | 248 | 5.0 | 6.0 | 0.02 | 0.24 | 0.02 | 94 | 1014.2 |
| 20260901015445 | 59 | 225 | 5.0 | 7.0 | 0.02 | 0.24 | 0.02 | 94 | 1014.2 |
| 20260901015301 | 59 | 248 | 6.0 | 10.0 | 0.02 | 0.24 | 0.02 | 94 | 1014.2 |
| 20260901015109 | 59 | 270 | 5.0 | 10.0 | 0.02 | 0.24 | 0.02 | 94 | 1014.1 |
| 20260901015037 | 59 | 270 | 5.0 | 10.0 | 0.02 | 0.24 | 0.02 | 94 | 1014.1 |
| 20260901014932 | 59 | 202 | 5.0 | 10.0 | 0.02 | 0.24 | 0.02 | 94 | 1014.1 |
| 20260901014755 | 59 | 225 | 5.0 | 10.0 | 0.02 | 0.24 | 0.02 | 94 | 1014.2 |
| 20260901014610 | 59 | 248 | 5.0 | 9.0 | 0.02 | 0.24 | 0.02 | 94 | 1014.2 |
| 20260901014422 | 59 | 270 | 5.0 | 9.0 | 0.02 | 0.24 | 0.02 | 94 | 1014.1 |
| 20260901014225 | 59 | 248 | 5.0 | 9.0 | 0.02 | 0.24 | 0.02 | 94 | 1014.2 |
| 20260901014041 | 59 | 248 | 5.0 | 9.0 | 0.02 | 0.24 | 0.02 | 94 | 1014.1 |
| 20260901013845 | 59 | 292 | 5.0 | 9.0 | 0.02 | 0.24 | 0.02 | 94 | 1014.1 |
| 20260901013650 | 59 | 202 | 5.0 | 9.0 | 0.02 | 0.24 | 0.02 | 94 | 1014.2 |
| 20260901013453 | 59 | 225 | 5.0 | 8.0 | 0.02 | 0.24 | 0.02 | 94 | 1014.1 |
| 20260901013321 | 59 | 248 | 5.0 | 8.0 | 0.02 | 0.24 | 0.02 | 94 | 1014.1 |
| 20260901013145 | 59 | 202 | 5.0 | 8.0 | 0.02 | 0.24 | 0.02 | 94 | 1014.1 |
| 20260901012945 | 59 | 225 | 5.0 | 10.0 | 0.02 | 0.24 | 0.02 | 94 | 1014.1 |
| 20260901012750 | 59 | 225 | 5.0 | 10.0 | 0.02 | 0.24 | 0.02 | 94 | 1014.1 |
| 20260901012555 | 59 | 292 | 5.0 | 10.0 | 0.02 | 0.24 | 0.02 | 94 | 1014.1 |
| 20260901012415 | 59 | 202 | 5.0 | 9.0 | 0.02 | 0.24 | 0.02 | 94 | 1014.1 |
| 20260901012230 | 59 | 248 | 4.0 | 11.0 | 0.02 | 0.24 | 0.02 | 94 | 1014.2 |
| 20260901012040 | 59 | 270 | 5.0 | 11.0 | 0.02 | 0.24 | 0.02 | 94 | 1014.1 |
| 20260901011928 | 59 | 270 | 5.0 | 11.0 | 0.02 | 0.24 | 0.02 | 94 | 1014.1 |
| 20260901011855 | 59 | 225 | 5.0 | 11.0 | 0.02 | 0.24 | 0.02 | 94 | 1014.1 |
| 20260901011720 | 59 | 270 | 5.0 | 11.0 | 0.02 | 0.24 | 0.02 | 94 | 1014.1 |
| 20260901011519 | 59 | 270 | 5.0 | 10.0 | 0.02 | 0.24 | 0.02 | 94 | 1014.1 |
| 20260901011335 | 59 | 270 | 5.0 | 10.0 | 0.02 | 0.24 | 0.02 | 94 | 1014.1 |
| 20260901011139 | 59 | 225 | 5.0 | 10.0 | 0.02 | 0.24 | 0.02 | 94 | 1014.1 |
| 20260901010945 | 59 | 225 | 5.0 | 7.0 | 0.02 | 0.24 | 0.02 | 94 | 1014.1 |
| 20260901010755 | 59 | 248 | 6.0 | 8.0 | 0.02 | 0.24 | 0.02 | 94 | 1014.0 |
| 20260901010600 | 59 | 202 | 6.0 | 8.0 | 0.02 | 0.24 | 0.02 | 94 | 1014.0 |
| 20260901010417 | 59 | 225 | 6.0 | 8.0 | 0.02 | 0.24 | 0.02 | 94 | 1014.1 |
| 20260901010304 | 59 | 158 | 5.0 | 10.0 | 0.02 | 0.24 | 0.02 | 94 | 1014.0 |
| 20260901010235 | 59 | 292 | 5.0 | 10.0 | 0.02 | 0.24 | 0.02 | 94 | 1014.1 |
| 20260901010055 | 59 | 270 | 6.0 | 10.0 | 0.02 | 0.24 | 0.02 | 94 | 1014.1 |
| 20260901005855 | 59 | 225 | 6.0 | 10.0 | 0.02 | 0.24 | 0.02 | 94 | 1014.1 |